Time,TemperatureF,DewpointF,PressureIn,WindDirection,WindDirectionDegrees,WindSpeedMPH,WindSpeedGustMPH,Humidity,HourlyPrecipIn,Conditions,Clouds,dailyrainin,SoftwareType,DateUTC
2013-03-05 00:00:00,41.0,25.6,29.93,East,95,4.0,4.0,54,0.00,,,0.00,Wunderground v.1.15,2013-03-05 05:00:00,
2013-03-05 00:02:00,41.0,25.2,29.93,East,99,4.0,7.0,53,0.00,,,0.00,Wunderground v.1.15,2013-03-05 05:02:00,
2013-03-05 00:04:00,41.0,25.2,29.93,ESE,102,4.0,7.0,53,0.00,,,0.00,Wunderground v.1.15,2013-03-05 05:04:00,
2013-03-05 00:06:00,41.0,25.6,29.93,East,100,4.0,7.0,54,0.00,,,0.00,Wunderground v.1.15,2013-03-05 05:06:00,
2013-03-05 00:10:00,41.0,25.2,29.93,East,85,4.0,4.0,53,0.00,,,0.00,Wunderground v.1.15,2013-03-05 05:10:00,
2013-03-05 00:11:00,41.0,25.6,29.93,East,96,4.0,4.0,54,0.00,,,0.00,Wunderground v.1.15,2013-03-05 05:11:00,
2013-03-05 00:14:00,41.0,25.6,29.93,East,99,3.0,5.0,54,0.00,,,0.00,Wunderground v.1.15,2013-03-05 05:14:00,
2013-03-05 00:18:00,41.0,25.2,29.93,ESE,109,4.0,6.0,53,0.00,,,0.00,Wunderground v.1.15,2013-03-05 05:18:00,
2013-03-05 00:19:00,41.0,25.2,29.93,ESE,104,4.0,6.0,53,0.00,,,0.00,Wunderground v.1.15,2013-03-05 05:19:00,
2013-03-05 00:21:00,41.0,25.2,29.93,ESE,102,4.0,4.0,53,0.00,,,0.00,Wunderground v.1.15,2013-03-05 05:21:00,
2013-03-05 00:22:00,41.0,25.2,29.93,East,100,4.0,6.0,53,0.00,,,0.00,Wunderground v.1.15,2013-03-05 05:22:00,
2013-03-05 00:25:00,41.0,25.2,29.93,ESE,107,4.0,6.0,53,0.00,,,0.00,Wunderground v.1.15,2013-03-05 05:25:00,
2013-03-05 00:28:00,41.0,25.6,29.93,ESE,110,3.0,6.0,54,0.00,,,0.00,Wunderground v.1.15,2013-03-05 05:28:00,
2013-03-05 00:29:00,41.0,25.6,29.93,ESE,104,3.0,6.0,54,0.00,,,0.00,Wunderground v.1.15,2013-03-05 05:29:00,
2013-03-05 00:31:00,41.0,25.2,29.93,East,95,3.0,5.0,53,0.00,,,0.00,Wunderground v.1.15,2013-03-05 05:31:00,
2013-03-05 00:36:00,41.0,25.6,29.93,East,89,3.0,5.0,54,0.00,,,0.00,Wunderground v.1.15,2013-03-05 05:36:00,
2013-03-05 00:38:00,40.8,25.4,29.93,East,93,3.0,5.0,54,0.00,,,0.00,Wunderground v.1.15,2013-03-05 05:38:00,
2013-03-05 00:39:00,40.8,25.4,29.93,East,93,3.0,5.0,54,0.00,,,0.00,Wunderground v.1.15,2013-03-05 05:39:00,
2013-03-05 00:40:00,40.8,25.4,29.93,East,95,3.0,3.0,54,0.00,,,0.00,Wunderground v.1.15,2013-03-05 05:40:00,
2013-03-05 00:43:00,40.8,25.4,29.93,East,92,2.0,3.0,54,0.00,,,0.00,Wunderground v.1.15,2013-03-05 05:43:00,
2013-03-05 00:45:00,40.8,25.4,29.92,East,89,2.0,3.0,54,0.00,,,0.00,Wunderground v.1.15,2013-03-05 05:45:00,
2013-03-05 00:48:00,40.7,25.3,29.92,East,93,2.0,3.0,54,0.00,,,0.00,Wunderground v.1.15,2013-03-05 05:48:00,
2013-03-05 00:50:00,40.7,25.8,29.92,East,93,2.0,2.0,55,0.00,,,0.00,Wunderground v.1.15,2013-03-05 05:50:00,
2013-03-05 00:52:00,40.7,25.8,29.92,East,93,2.0,3.0,55,0.00,,,0.00,Wunderground v.1.15,2013-03-05 05:52:00,
2013-03-05 00:53:00,40.7,25.3,29.92,East,93,2.0,3.0,54,0.00,,,0.00,Wunderground v.1.15,2013-03-05 05:53:00,
2013-03-05 00:56:00,40.7,25.8,29.92,East,88,2.0,3.0,55,0.00,,,0.00,Wunderground v.1.15,2013-03-05 05:56:00,
2013-03-05 00:57:00,40.7,25.8,29.92,East,88,2.0,3.0,55,0.00,,,0.00,Wunderground v.1.15,2013-03-05 05:57:00,
2013-03-05 00:58:00,40.7,25.8,29.92,East,88,2.0,3.0,55,0.00,,,0.00,Wunderground v.1.15,2013-03-05 05:58:00,
2013-03-05 01:02:00,40.7,25.8,29.92,ESE,106,2.0,2.0,55,0.00,,,0.00,Wunderground v.1.15,2013-03-05 06:02:00,
2013-03-05 01:03:00,40.7,25.8,29.92,ESE,106,2.0,2.0,55,0.00,,,0.00,Wunderground v.1.15,2013-03-05 06:03:00,
2013-03-05 01:05:00,40.7,25.8,29.92,East,93,2.0,3.0,55,0.00,,,0.00,Wunderground v.1.15,2013-03-05 06:05:00,
2013-03-05 01:07:00,40.7,25.8,29.92,East,93,2.0,3.0,55,0.00,,,0.00,Wunderground v.1.15,2013-03-05 06:07:00,
2013-03-05 01:08:00,40.6,26.1,29.92,East,93,2.0,3.0,56,0.00,,,0.00,Wunderground v.1.15,2013-03-05 06:08:00,
2013-03-05 01:09:00,40.6,26.1,29.92,ENE,75,2.0,3.0,56,0.00,,,0.00,Wunderground v.1.15,2013-03-05 06:09:00,
2013-03-05 01:11:00,40.6,26.1,29.92,East,88,2.0,3.0,56,0.00,,,0.00,Wunderground v.1.15,2013-03-05 06:11:00,
2013-03-05 01:12:00,40.6,26.1,29.92,East,88,2.0,3.0,56,0.00,,,0.00,Wunderground v.1.15,2013-03-05 06:12:00,
2013-03-05 01:14:00,40.6,26.1,29.92,East,93,2.0,3.0,56,0.00,,,0.00,Wunderground v.1.15,2013-03-05 06:14:00,
2013-03-05 01:15:00,40.6,26.1,29.91,East,93,2.0,3.0,56,0.00,,,0.00,Wunderground v.1.15,2013-03-05 06:15:00,
2013-03-05 01:16:00,40.6,26.1,29.91,East,90,2.0,3.0,56,0.00,,,0.00,Wunderground v.1.15,2013-03-05 06:16:00,
2013-03-05 01:20:00,40.6,26.1,29.91,East,92,2.0,2.0,56,0.00,,,0.00,Wunderground v.1.15,2013-03-05 06:20:00,
2013-03-05 01:23:00,40.6,25.7,29.91,East,83,2.0,2.0,55,0.00,,,0.00,Wunderground v.1.15,2013-03-05 06:23:00,
2013-03-05 01:25:00,40.6,25.7,29.91,ENE,76,2.0,3.0,55,0.00,,,0.00,Wunderground v.1.15,2013-03-05 06:25:00,
2013-03-05 01:27:00,40.7,25.8,29.91,ENE,78,2.0,3.0,55,0.00,,,0.00,Wunderground v.1.15,2013-03-05 06:27:00,
2013-03-05 01:28:00,40.7,25.8,29.91,East,80,2.0,3.0,55,0.00,,,0.00,Wunderground v.1.15,2013-03-05 06:28:00,
2013-03-05 01:33:00,40.7,25.8,29.91,East,88,2.0,3.0,55,0.00,,,0.00,Wunderground v.1.15,2013-03-05 06:33:00,
2013-03-05 01:34:00,40.7,25.8,29.91,East,86,2.0,3.0,55,0.00,,,0.00,Wunderground v.1.15,2013-03-05 06:34:00,
2013-03-05 01:36:00,40.7,26.2,29.91,ESE,103,2.0,4.0,56,0.00,,,0.00,Wunderground v.1.15,2013-03-05 06:36:00,
2013-03-05 01:37:00,40.7,26.2,29.91,East,92,2.0,4.0,56,0.00,,,0.00,Wunderground v.1.15,2013-03-05 06:37:00,
2013-03-05 01:40:00,40.7,26.2,29.91,East,95,2.0,2.0,56,0.00,,,0.00,Wunderground v.1.15,2013-03-05 06:40:00,
2013-03-05 01:42:00,40.7,26.2,29.91,East,95,2.0,2.0,56,0.00,,,0.00,Wunderground v.1.15,2013-03-05 06:42:00,
2013-03-05 01:45:00,40.7,26.2,29.91,East,85,2.0,2.0,56,0.00,,,0.00,Wunderground v.1.15,2013-03-05 06:45:00,
2013-03-05 01:48:00,40.7,26.2,29.91,East,85,2.0,3.0,56,0.00,,,0.00,Wunderground v.1.15,2013-03-05 06:48:00,
2013-03-05 01:49:00,40.7,26.2,29.91,East,85,2.0,3.0,56,0.00,,,0.00,Wunderground v.1.15,2013-03-05 06:49:00,
2013-03-05 01:50:00,40.7,26.2,29.91,East,85,2.0,2.0,56,0.00,,,0.00,Wunderground v.1.15,2013-03-05 06:50:00,
2013-03-05 01:55:00,40.7,26.2,29.91,East,86,2.0,3.0,56,0.00,,,0.00,Wunderground v.1.15,2013-03-05 06:55:00,
2013-03-05 01:56:00,40.7,26.2,29.91,East,90,2.0,6.0,56,0.00,,,0.00,Wunderground v.1.15,2013-03-05 06:56:00,
2013-03-05 01:57:00,40.7,26.2,29.91,East,96,2.0,6.0,56,0.00,,,0.00,Wunderground v.1.15,2013-03-05 06:57:00,
2013-03-05 02:00:00,40.7,26.6,29.90,East,97,3.0,3.0,57,0.00,,,0.00,Wunderground v.1.15,2013-03-05 07:00:00,
2013-03-05 02:02:00,40.7,26.6,29.90,East,99,3.0,3.0,57,0.00,,,0.00,Wunderground v.1.15,2013-03-05 07:02:00,
2013-03-05 02:04:00,40.7,26.2,29.90,East,95,3.0,3.0,56,0.00,,,0.00,Wunderground v.1.15,2013-03-05 07:04:00,
2013-03-05 02:07:00,40.7,26.2,29.90,East,82,2.0,5.0,56,0.00,,,0.00,Wunderground v.1.15,2013-03-05 07:07:00,
2013-03-05 02:08:00,40.8,26.3,29.90,East,86,2.0,5.0,56,0.00,,,0.00,Wunderground v.1.15,2013-03-05 07:08:00,
2013-03-05 02:09:00,40.8,26.3,29.90,ENE,69,2.0,5.0,56,0.00,,,0.00,Wunderground v.1.15,2013-03-05 07:09:00,
2013-03-05 02:10:00,40.8,26.3,29.90,East,85,3.0,3.0,56,0.00,,,0.00,Wunderground v.1.15,2013-03-05 07:10:00,
2013-03-05 02:13:00,41.0,26.5,29.90,East,88,3.0,3.0,56,0.00,,,0.00,Wunderground v.1.15,2013-03-05 07:13:00,
2013-03-05 02:15:00,41.0,26.1,29.90,East,99,3.0,6.0,55,0.00,,,0.00,Wunderground v.1.15,2013-03-05 07:15:00,
2013-03-05 02:19:00,41.0,26.5,29.90,East,85,3.0,6.0,56,0.00,,,0.00,Wunderground v.1.15,2013-03-05 07:19:00,
2013-03-05 02:20:00,41.0,26.5,29.90,East,85,3.0,3.0,56,0.00,,,0.00,Wunderground v.1.15,2013-03-05 07:20:00,
2013-03-05 02:21:00,41.0,26.5,29.90,ESE,106,3.0,3.0,56,0.00,,,0.00,Wunderground v.1.15,2013-03-05 07:21:00,
2013-03-05 02:26:00,41.0,26.5,29.90,East,93,2.0,3.0,56,0.00,,,0.00,Wunderground v.1.15,2013-03-05 07:26:00,
2013-03-05 02:27:00,41.0,26.5,29.90,East,95,2.0,3.0,56,0.00,,,0.00,Wunderground v.1.15,2013-03-05 07:27:00,
2013-03-05 02:28:00,41.0,26.5,29.90,ESE,103,2.0,3.0,56,0.00,,,0.00,Wunderground v.1.15,2013-03-05 07:28:00,
2013-03-05 02:31:00,41.0,26.5,29.90,East,82,3.0,5.0,56,0.00,,,0.00,Wunderground v.1.15,2013-03-05 07:31:00,
2013-03-05 02:32:00,41.1,26.6,29.90,East,96,3.0,5.0,56,0.00,,,0.00,Wunderground v.1.15,2013-03-05 07:32:00,
2013-03-05 02:36:00,41.1,26.6,29.90,East,95,4.0,5.0,56,0.00,,,0.00,Wunderground v.1.15,2013-03-05 07:36:00,
2013-03-05 02:39:00,41.1,26.6,29.90,ESE,102,4.0,5.0,56,0.00,,,0.00,Wunderground v.1.15,2013-03-05 07:39:00,
2013-03-05 02:40:00,41.1,26.6,29.90,East,96,4.0,5.0,56,0.00,,,0.00,Wunderground v.1.15,2013-03-05 07:40:00,
2013-03-05 02:41:00,41.1,26.6,29.90,ESE,110,4.0,5.0,56,0.00,,,0.00,Wunderground v.1.15,2013-03-05 07:41:00,
2013-03-05 02:42:00,41.1,27.0,29.90,ESE,106,4.0,5.0,57,0.00,,,0.00,Wunderground v.1.15,2013-03-05 07:42:00,
2013-03-05 02:45:00,41.0,26.9,29.88,East,89,4.0,5.0,57,0.00,,,0.00,Wunderground v.1.15,2013-03-05 07:45:00,
2013-03-05 02:47:00,41.1,26.6,29.88,East,79,4.0,6.0,56,0.00,,,0.00,Wunderground v.1.15,2013-03-05 07:47:00,
2013-03-05 02:49:00,41.1,27.0,29.88,East,93,4.0,6.0,57,0.00,,,0.00,Wunderground v.1.15,2013-03-05 07:49:00,
2013-03-05 02:50:00,41.1,27.0,29.88,East,89,4.0,4.0,57,0.00,,,0.00,Wunderground v.1.15,2013-03-05 07:50:00,
2013-03-05 02:53:00,41.1,27.0,29.88,East,80,4.0,5.0,57,0.00,,,0.00,Wunderground v.1.15,2013-03-05 07:53:00,
2013-03-05 02:55:00,41.1,27.0,29.88,East,93,4.0,5.0,57,0.00,,,0.00,Wunderground v.1.15,2013-03-05 07:55:00,
2013-03-05 03:00:00,41.1,27.0,29.88,East,100,4.0,4.0,57,0.00,,,0.00,Wunderground v.1.15,2013-03-05 08:00:00,
2013-03-05 03:01:00,41.1,27.0,29.88,East,86,4.0,4.0,57,0.00,,,0.00,Wunderground v.1.15,2013-03-05 08:01:00,
2013-03-05 03:02:00,41.1,27.0,29.88,East,92,4.0,4.0,57,0.00,,,0.00,Wunderground v.1.15,2013-03-05 08:02:00,
2013-03-05 03:07:00,41.1,27.0,29.88,East,92,4.0,5.0,57,0.00,,,0.00,Wunderground v.1.15,2013-03-05 08:07:00,
2013-03-05 03:08:00,41.1,27.0,29.88,East,99,4.0,5.0,57,0.00,,,0.00,Wunderground v.1.15,2013-03-05 08:08:00,
2013-03-05 03:10:00,41.1,27.0,29.88,ENE,73,3.0,3.0,57,0.00,,,0.00,Wunderground v.1.15,2013-03-05 08:10:00,
2013-03-05 03:11:00,41.1,27.0,29.88,East,85,4.0,4.0,57,0.00,,,0.00,Wunderground v.1.15,2013-03-05 08:11:00,
2013-03-05 03:14:00,41.1,27.0,29.88,East,95,3.0,4.0,57,0.00,,,0.00,Wunderground v.1.15,2013-03-05 08:14:00,
2013-03-05 03:16:00,41.3,27.2,29.87,East,89,3.0,4.0,57,0.00,,,0.00,Wunderground v.1.15,2013-03-05 08:16:00,
2013-03-05 03:18:00,41.3,27.2,29.87,East,83,3.0,4.0,57,0.00,,,0.00,Wunderground v.1.15,2013-03-05 08:18:00,
2013-03-05 03:19:00,41.3,27.2,29.87,East,93,3.0,4.0,57,0.00,,,0.00,Wunderground v.1.15,2013-03-05 08:19:00,
2013-03-05 03:20:00,41.3,27.2,29.87,East,88,3.0,3.0,57,0.00,,,0.00,Wunderground v.1.15,2013-03-05 08:20:00,
2013-03-05 03:21:00,41.3,27.2,29.87,East,82,3.0,3.0,57,0.00,,,0.00,Wunderground v.1.15,2013-03-05 08:21:00,
2013-03-05 03:23:00,41.3,27.2,29.87,East,83,3.0,3.0,57,0.00,,,0.00,Wunderground v.1.15,2013-03-05 08:23:00,
2013-03-05 03:26:00,41.3,27.2,29.87,East,95,3.0,3.0,57,0.00,,,0.00,Wunderground v.1.15,2013-03-05 08:26:00,
2013-03-05 03:29:00,41.3,27.2,29.87,East,97,3.0,3.0,57,0.00,,,0.00,Wunderground v.1.15,2013-03-05 08:29:00,
2013-03-05 03:30:00,41.3,27.2,29.87,East,85,3.0,3.0,57,0.00,,,0.00,Wunderground v.1.15,2013-03-05 08:30:00,
2013-03-05 03:31:00,41.3,27.2,29.87,ESE,102,3.0,3.0,57,0.00,,,0.00,Wunderground v.1.15,2013-03-05 08:31:00,
2013-03-05 03:36:00,41.1,27.0,29.87,East,92,3.0,5.0,57,0.00,,,0.00,Wunderground v.1.15,2013-03-05 08:36:00,
2013-03-05 03:38:00,41.1,27.0,29.87,East,90,3.0,5.0,57,0.00,,,0.00,Wunderground v.1.15,2013-03-05 08:38:00,
2013-03-05 03:42:00,41.1,27.4,29.87,East,88,2.0,3.0,58,0.00,,,0.00,Wunderground v.1.15,2013-03-05 08:42:00,
2013-03-05 03:43:00,41.1,27.4,29.87,East,93,2.0,3.0,58,0.00,,,0.00,Wunderground v.1.15,2013-03-05 08:43:00,
2013-03-05 03:45:00,41.1,27.4,29.87,East,90,2.0,3.0,58,0.00,,,0.00,Wunderground v.1.15,2013-03-05 08:45:00,
2013-03-05 03:47:00,41.1,27.4,29.87,East,92,2.0,3.0,58,0.00,,,0.00,Wunderground v.1.15,2013-03-05 08:47:00,
2013-03-05 03:49:00,41.1,27.4,29.87,East,86,2.0,3.0,58,0.00,,,0.00,Wunderground v.1.15,2013-03-05 08:49:00,
2013-03-05 03:50:00,41.1,27.4,29.87,East,80,2.0,2.0,58,0.00,,,0.00,Wunderground v.1.15,2013-03-05 08:50:00,
2013-03-05 03:52:00,41.1,27.4,29.87,East,90,2.0,2.0,58,0.00,,,0.00,Wunderground v.1.15,2013-03-05 08:52:00,
2013-03-05 03:54:00,41.1,27.4,29.87,East,86,2.0,2.0,58,0.00,,,0.00,Wunderground v.1.15,2013-03-05 08:54:00,
2013-03-05 03:55:00,41.1,27.4,29.87,East,88,2.0,2.0,58,0.00,,,0.00,Wunderground v.1.15,2013-03-05 08:55:00,
2013-03-05 03:56:00,41.1,27.4,29.87,East,89,2.0,3.0,58,0.00,,,0.00,Wunderground v.1.15,2013-03-05 08:56:00,
2013-03-05 04:01:00,41.1,27.4,29.86,East,96,2.0,3.0,58,0.00,,,0.00,Wunderground v.1.15,2013-03-05 09:01:00,
2013-03-05 04:02:00,41.1,27.4,29.86,East,88,2.0,3.0,58,0.00,,,0.00,Wunderground v.1.15,2013-03-05 09:02:00,
2013-03-05 04:04:00,41.1,27.4,29.86,East,99,2.0,4.0,58,0.00,,,0.00,Wunderground v.1.15,2013-03-05 09:04:00,
2013-03-05 04:07:00,41.1,27.4,29.86,East,95,2.0,4.0,58,0.00,,,0.00,Wunderground v.1.15,2013-03-05 09:07:00,
2013-03-05 04:08:00,41.1,27.4,29.86,East,99,2.0,5.0,58,0.00,,,0.00,Wunderground v.1.15,2013-03-05 09:08:00,
2013-03-05 04:09:00,41.1,27.4,29.86,East,99,3.0,5.0,58,0.00,,,0.00,Wunderground v.1.15,2013-03-05 09:09:00,
2013-03-05 04:11:00,41.1,27.4,29.86,East,97,2.0,2.0,58,0.00,,,0.00,Wunderground v.1.15,2013-03-05 09:11:00,
2013-03-05 04:14:00,41.1,27.4,29.86,East,99,3.0,5.0,58,0.00,,,0.00,Wunderground v.1.15,2013-03-05 09:14:00,
2013-03-05 04:16:00,41.1,27.4,29.86,ESE,102,3.0,5.0,58,0.00,,,0.00,Wunderground v.1.15,2013-03-05 09:16:00,
2013-03-05 04:17:00,41.1,27.4,29.86,East,90,3.0,5.0,58,0.00,,,0.00,Wunderground v.1.15,2013-03-05 09:17:00,
2013-03-05 04:20:00,41.1,27.4,29.86,East,93,3.0,3.0,58,0.00,,,0.00,Wunderground v.1.15,2013-03-05 09:20:00,
2013-03-05 04:23:00,41.1,27.9,29.86,East,93,3.0,5.0,59,0.00,,,0.00,Wunderground v.1.15,2013-03-05 09:23:00,
2013-03-05 04:25:00,41.1,27.9,29.86,East,88,3.0,5.0,59,0.00,,,0.00,Wunderground v.1.15,2013-03-05 09:25:00,
2013-03-05 04:26:00,41.1,27.9,29.86,East,97,3.0,5.0,59,0.00,,,0.00,Wunderground v.1.15,2013-03-05 09:26:00,
2013-03-05 04:27:00,41.1,27.9,29.86,East,97,3.0,5.0,59,0.00,,,0.00,Wunderground v.1.15,2013-03-05 09:27:00,
2013-03-05 04:30:00,41.1,27.9,29.86,East,93,4.0,4.0,59,0.00,,,0.00,Wunderground v.1.15,2013-03-05 09:30:00,
2013-03-05 04:31:00,41.1,27.9,29.86,East,93,3.0,4.0,59,0.00,,,0.00,Wunderground v.1.15,2013-03-05 09:31:00,
2013-03-05 04:33:00,41.1,27.9,29.86,East,95,3.0,5.0,59,0.00,,,0.00,Wunderground v.1.15,2013-03-05 09:33:00,
2013-03-05 04:36:00,41.1,27.9,29.86,ESE,107,3.0,6.0,59,0.00,,,0.00,Wunderground v.1.15,2013-03-05 09:36:00,
2013-03-05 04:37:00,41.1,27.9,29.86,ESE,107,3.0,6.0,59,0.00,,,0.00,Wunderground v.1.15,2013-03-05 09:37:00,
2013-03-05 04:39:00,41.1,27.9,29.86,ESE,107,3.0,6.0,59,0.00,,,0.00,Wunderground v.1.15,2013-03-05 09:39:00,
2013-03-05 04:42:00,41.1,27.9,29.86,ESE,107,3.0,3.0,59,0.00,,,0.00,Wunderground v.1.15,2013-03-05 09:42:00,
2013-03-05 04:43:00,41.0,27.8,29.86,ESE,107,2.0,3.0,59,0.00,,,0.00,Wunderground v.1.15,2013-03-05 09:43:00,
2013-03-05 04:45:00,41.0,27.8,29.86,ESE,107,2.0,3.0,59,0.00,,,0.00,Wunderground v.1.15,2013-03-05 09:45:00,
2013-03-05 04:48:00,41.0,27.8,29.86,ESE,107,1.0,3.0,59,0.00,,,0.00,Wunderground v.1.15,2013-03-05 09:48:00,
2013-03-05 04:51:00,41.0,27.8,29.86,ESE,107,1.0,1.0,59,0.00,,,0.00,Wunderground v.1.15,2013-03-05 09:51:00,
2013-03-05 04:52:00,41.0,27.8,29.86,ESE,107,1.0,1.0,59,0.00,,,0.00,Wunderground v.1.15,2013-03-05 09:52:00,
2013-03-05 04:53:00,41.0,27.8,29.86,ESE,117,1.0,3.0,59,0.00,,,0.00,Wunderground v.1.15,2013-03-05 09:53:00,
2013-03-05 04:54:00,41.0,27.8,29.86,ESE,109,1.0,4.0,59,0.00,,,0.00,Wunderground v.1.15,2013-03-05 09:54:00,
2013-03-05 04:56:00,41.1,27.4,29.86,ESE,109,1.0,4.0,58,0.00,,,0.00,Wunderground v.1.15,2013-03-05 09:56:00,
2013-03-05 04:58:00,41.1,27.4,29.86,ESE,116,1.0,4.0,58,0.00,,,0.00,Wunderground v.1.15,2013-03-05 09:58:00,
2013-03-05 05:01:00,41.1,27.9,29.86,ESE,104,2.0,2.0,59,0.00,,,0.00,Wunderground v.1.15,2013-03-05 10:01:00,
2013-03-05 05:02:00,41.1,27.9,29.86,ESE,116,2.0,2.0,59,0.00,,,0.00,Wunderground v.1.15,2013-03-05 10:02:00,
2013-03-05 05:03:00,41.1,27.9,29.86,ESE,106,3.0,3.0,59,0.00,,,0.00,Wunderground v.1.15,2013-03-05 10:03:00,
2013-03-05 05:04:00,41.1,27.9,29.86,ESE,107,3.0,3.0,59,0.00,,,0.00,Wunderground v.1.15,2013-03-05 10:04:00,
2013-03-05 05:07:00,41.1,27.9,29.86,ESE,120,3.0,3.0,59,0.00,,,0.00,Wunderground v.1.15,2013-03-05 10:07:00,
2013-03-05 05:09:00,41.1,27.9,29.86,ESE,109,3.0,4.0,59,0.00,,,0.00,Wunderground v.1.15,2013-03-05 10:09:00,
2013-03-05 05:11:00,41.1,27.9,29.86,ESE,119,3.0,5.0,59,0.00,,,0.00,Wunderground v.1.15,2013-03-05 10:11:00,
2013-03-05 05:12:00,41.1,27.9,29.86,ESE,117,3.0,5.0,59,0.00,,,0.00,Wunderground v.1.15,2013-03-05 10:12:00,
2013-03-05 05:13:00,41.1,27.9,29.86,ESE,113,3.0,5.0,59,0.00,,,0.00,Wunderground v.1.15,2013-03-05 10:13:00,
2013-03-05 05:14:00,41.1,27.9,29.86,East,99,3.0,5.0,59,0.00,,,0.00,Wunderground v.1.15,2013-03-05 10:14:00,
2013-03-05 05:18:00,41.1,27.9,29.85,ESE,103,3.0,5.0,59,0.00,,,0.00,Wunderground v.1.15,2013-03-05 10:18:00,
2013-03-05 05:19:00,41.1,28.3,29.85,East,89,3.0,5.0,60,0.00,,,0.00,Wunderground v.1.15,2013-03-05 10:19:00,
2013-03-05 05:20:00,41.1,28.3,29.85,ESE,104,3.0,5.0,60,0.00,,,0.00,Wunderground v.1.15,2013-03-05 10:20:00,
2013-03-05 05:23:00,41.0,27.8,29.85,East,82,4.0,5.0,59,0.00,,,0.00,Wunderground v.1.15,2013-03-05 10:23:00,
2013-03-05 05:25:00,41.0,28.2,29.85,ESE,103,4.0,5.0,60,0.00,,,0.00,Wunderground v.1.15,2013-03-05 10:25:00,
2013-03-05 05:28:00,41.0,28.2,29.85,ESE,102,4.0,7.0,60,0.00,,,0.00,Wunderground v.1.15,2013-03-05 10:28:00,
2013-03-05 05:29:00,41.0,28.2,29.85,ESE,102,4.0,7.0,60,0.00,,,0.00,Wunderground v.1.15,2013-03-05 10:29:00,
2013-03-05 05:31:00,41.0,28.2,29.84,ESE,106,4.0,4.0,60,0.00,,,0.00,Wunderground v.1.15,2013-03-05 10:31:00,
2013-03-05 05:33:00,41.0,28.2,29.84,East,95,4.0,6.0,60,0.00,,,0.00,Wunderground v.1.15,2013-03-05 10:33:00,
2013-03-05 05:36:00,41.0,28.2,29.84,East,99,4.0,7.0,60,0.00,,,0.00,Wunderground v.1.15,2013-03-05 10:36:00,
2013-03-05 05:40:00,41.1,28.3,29.84,ESE,103,5.0,6.0,60,0.00,,,0.00,Wunderground v.1.15,2013-03-05 10:40:00,
2013-03-05 05:41:00,41.1,28.3,29.84,East,97,5.0,6.0,60,0.00,,,0.00,Wunderground v.1.15,2013-03-05 10:41:00,
2013-03-05 05:42:00,41.1,28.3,29.84,ESE,109,5.0,6.0,60,0.00,,,0.00,Wunderground v.1.15,2013-03-05 10:42:00,
2013-03-05 05:43:00,41.1,28.3,29.84,East,96,5.0,6.0,60,0.00,,,0.00,Wunderground v.1.15,2013-03-05 10:43:00,
2013-03-05 05:46:00,41.1,28.3,29.85,ESE,106,5.0,6.0,60,0.00,,,0.00,Wunderground v.1.15,2013-03-05 10:46:00,
2013-03-05 05:49:00,41.1,28.3,29.85,ESE,110,5.0,6.0,60,0.00,,,0.00,Wunderground v.1.15,2013-03-05 10:49:00,
2013-03-05 05:50:00,41.1,28.3,29.85,ESE,106,5.0,5.0,60,0.00,,,0.00,Wunderground v.1.15,2013-03-05 10:50:00,
2013-03-05 05:51:00,41.1,28.3,29.85,ESE,109,5.0,5.0,60,0.00,,,0.00,Wunderground v.1.15,2013-03-05 10:51:00,
2013-03-05 05:52:00,41.0,28.2,29.85,ESE,102,5.0,8.0,60,0.00,,,0.00,Wunderground v.1.15,2013-03-05 10:52:00,
2013-03-05 05:55:00,41.0,28.2,29.85,ESE,103,5.0,8.0,60,0.00,,,0.00,Wunderground v.1.15,2013-03-05 10:55:00,
2013-03-05 05:56:00,41.0,28.2,29.85,ESE,104,5.0,8.0,60,0.00,,,0.00,Wunderground v.1.15,2013-03-05 10:56:00,
2013-03-05 05:57:00,41.0,28.2,29.85,East,93,5.0,8.0,60,0.00,,,0.00,Wunderground v.1.15,2013-03-05 10:57:00,
2013-03-05 06:00:00,41.0,28.2,29.83,East,95,6.0,7.0,60,0.00,,,0.00,Wunderground v.1.15,2013-03-05 11:00:00,
2013-03-05 06:02:00,41.0,28.2,29.83,ESE,120,6.0,8.0,60,0.00,,,0.00,Wunderground v.1.15,2013-03-05 11:02:00,
2013-03-05 06:03:00,41.0,28.2,29.83,East,99,6.0,8.0,60,0.00,,,0.00,Wunderground v.1.15,2013-03-05 11:03:00,
2013-03-05 06:04:00,40.8,28.0,29.83,ESE,109,6.0,8.0,60,0.00,,,0.00,Wunderground v.1.15,2013-03-05 11:04:00,
2013-03-05 06:07:00,40.8,28.0,29.83,ESE,104,6.0,8.0,60,0.00,,,0.00,Wunderground v.1.15,2013-03-05 11:07:00,
2013-03-05 06:09:00,40.8,28.0,29.83,East,100,6.0,8.0,60,0.00,,,0.00,Wunderground v.1.15,2013-03-05 11:09:00,
2013-03-05 06:10:00,40.8,28.0,29.83,ESE,110,6.0,6.0,60,0.00,,,0.00,Wunderground v.1.15,2013-03-05 11:10:00,
2013-03-05 06:14:00,40.8,28.0,29.83,ESE,119,6.0,7.0,60,0.00,,,0.00,Wunderground v.1.15,2013-03-05 11:14:00,
2013-03-05 06:16:00,40.8,28.4,29.85,ESE,103,6.0,7.0,61,0.00,,,0.00,Wunderground v.1.15,2013-03-05 11:16:00,
2013-03-05 06:17:00,40.8,28.4,29.85,ESE,103,6.0,7.0,61,0.00,,,0.00,Wunderground v.1.15,2013-03-05 11:17:00,
2013-03-05 06:21:00,40.8,28.4,29.85,ESE,112,5.0,5.0,61,0.00,,,0.00,Wunderground v.1.15,2013-03-05 11:21:00,
2013-03-05 06:23:00,40.8,28.4,29.85,ESE,110,4.0,5.0,61,0.00,,,0.00,Wunderground v.1.15,2013-03-05 11:23:00,
2013-03-05 06:28:00,40.7,28.3,29.85,ESE,104,4.0,6.0,61,0.00,,,0.00,Wunderground v.1.15,2013-03-05 11:28:00,
2013-03-05 06:29:00,40.7,28.3,29.85,ESE,106,4.0,6.0,61,0.00,,,0.00,Wunderground v.1.15,2013-03-05 11:29:00,
2013-03-05 06:31:00,40.7,28.3,29.85,ESE,106,4.0,4.0,61,0.00,,,0.00,Wunderground v.1.15,2013-03-05 11:31:00,
2013-03-05 06:36:00,40.7,28.7,29.85,East,82,3.0,4.0,62,0.00,,,0.00,Wunderground v.1.15,2013-03-05 11:36:00,
2013-03-05 06:37:00,40.6,28.6,29.85,ESE,102,3.0,4.0,62,0.00,,,0.00,Wunderground v.1.15,2013-03-05 11:37:00,
2013-03-05 06:39:00,40.6,28.6,29.85,ESE,102,3.0,5.0,62,0.00,,,0.00,Wunderground v.1.15,2013-03-05 11:39:00,
2013-03-05 06:42:00,40.6,28.6,29.85,ESE,106,4.0,6.0,62,0.00,,,0.00,Wunderground v.1.15,2013-03-05 11:42:00,
2013-03-05 06:43:00,40.6,28.6,29.85,East,96,4.0,6.0,62,0.00,,,0.00,Wunderground v.1.15,2013-03-05 11:43:00,
2013-03-05 06:45:00,40.6,29.0,29.85,ESE,103,4.0,6.0,63,0.00,,,0.00,Wunderground v.1.15,2013-03-05 11:45:00,
2013-03-05 06:46:00,40.6,29.0,29.85,East,97,4.0,6.0,63,0.00,,,0.00,Wunderground v.1.15,2013-03-05 11:46:00,
2013-03-05 06:47:00,40.6,29.0,29.85,East,96,4.0,6.0,63,0.00,,,0.00,Wunderground v.1.15,2013-03-05 11:47:00,
2013-03-05 06:49:00,40.4,28.8,29.85,East,96,4.0,6.0,63,0.00,,,0.00,Wunderground v.1.15,2013-03-05 11:49:00,
2013-03-05 06:52:00,40.4,28.8,29.85,ENE,76,4.0,4.0,63,0.00,,,0.00,Wunderground v.1.15,2013-03-05 11:52:00,
2013-03-05 06:55:00,40.4,28.8,29.85,ESE,104,3.0,4.0,63,0.00,,,0.00,Wunderground v.1.15,2013-03-05 11:55:00,
2013-03-05 06:57:00,40.4,28.8,29.85,ENE,78,3.0,4.0,63,0.00,,,0.00,Wunderground v.1.15,2013-03-05 11:57:00,
2013-03-05 07:00:00,40.4,29.2,29.84,ENE,73,2.0,2.0,64,0.00,,,0.00,Wunderground v.1.15,2013-03-05 12:00:00,
2013-03-05 07:01:00,40.4,29.2,29.84,ENE,73,2.0,2.0,64,0.00,,,0.00,Wunderground v.1.15,2013-03-05 12:01:00,
2013-03-05 07:03:00,40.4,29.2,29.84,ENE,78,2.0,3.0,64,0.00,,,0.00,Wunderground v.1.15,2013-03-05 12:03:00,
2013-03-05 07:06:00,40.4,29.2,29.84,East,90,2.0,3.0,64,0.00,,,0.00,Wunderground v.1.15,2013-03-05 12:06:00,
2013-03-05 07:09:00,40.3,29.1,29.84,East,97,2.0,3.0,64,0.00,,,0.00,Wunderground v.1.15,2013-03-05 12:09:00,
2013-03-05 07:13:00,40.3,29.1,29.84,East,97,2.0,2.0,64,0.00,,,0.00,Wunderground v.1.15,2013-03-05 12:13:00,
2013-03-05 07:14:00,40.3,29.5,29.84,East,97,2.0,2.0,65,0.00,,,0.00,Wunderground v.1.15,2013-03-05 12:14:00,
2013-03-05 07:16:00,40.3,29.5,29.83,East,83,2.0,3.0,65,0.00,,,0.00,Wunderground v.1.15,2013-03-05 12:16:00,
2013-03-05 07:20:00,40.4,29.2,29.83,East,82,2.0,4.0,64,0.00,,,0.00,Wunderground v.1.15,2013-03-05 12:20:00,
2013-03-05 07:21:00,40.4,29.2,29.83,East,95,2.0,4.0,64,0.00,,,0.00,Wunderground v.1.15,2013-03-05 12:21:00,
2013-03-05 07:22:00,40.4,29.2,29.83,East,95,2.0,5.0,64,0.00,,,0.00,Wunderground v.1.15,2013-03-05 12:22:00,
2013-03-05 07:25:00,40.4,29.2,29.83,East,100,3.0,5.0,64,0.00,,,0.00,Wunderground v.1.15,2013-03-05 12:25:00,
2013-03-05 07:26:00,40.4,29.2,29.83,East,89,3.0,5.0,64,0.00,,,0.00,Wunderground v.1.15,2013-03-05 12:26:00,
2013-03-05 07:27:00,40.4,29.2,29.83,East,89,3.0,5.0,64,0.00,,,0.00,Wunderground v.1.15,2013-03-05 12:27:00,
2013-03-05 07:29:00,40.6,29.4,29.83,East,96,3.0,5.0,64,0.00,,,0.00,Wunderground v.1.15,2013-03-05 12:29:00,
2013-03-05 07:33:00,40.6,29.4,29.82,ESE,106,3.0,6.0,64,0.00,,,0.00,Wunderground v.1.15,2013-03-05 12:33:00,
2013-03-05 07:35:00,40.6,29.4,29.82,ESE,102,4.0,6.0,64,0.00,,,0.00,Wunderground v.1.15,2013-03-05 12:35:00,
2013-03-05 07:37:00,40.6,29.4,29.82,ESE,110,4.0,6.0,64,0.00,,,0.00,Wunderground v.1.15,2013-03-05 12:37:00,
2013-03-05 07:38:00,40.7,29.5,29.82,ESE,113,4.0,6.0,64,0.00,,,0.00,Wunderground v.1.15,2013-03-05 12:38:00,
2013-03-05 07:40:00,40.7,29.5,29.82,ESE,113,5.0,5.0,64,0.00,,,0.00,Wunderground v.1.15,2013-03-05 12:40:00,
2013-03-05 07:45:00,40.7,29.5,29.83,ESE,114,4.0,5.0,64,0.00,,,0.00,Wunderground v.1.15,2013-03-05 12:45:00,
2013-03-05 07:46:00,40.7,29.5,29.83,ESE,109,3.0,5.0,64,0.00,,,0.00,Wunderground v.1.15,2013-03-05 12:46:00,
2013-03-05 07:47:00,40.7,29.5,29.83,ESE,109,3.0,5.0,64,0.00,,,0.00,Wunderground v.1.15,2013-03-05 12:47:00,
2013-03-05 07:48:00,40.7,29.5,29.83,ESE,116,3.0,5.0,64,0.00,,,0.00,Wunderground v.1.15,2013-03-05 12:48:00,
2013-03-05 07:52:00,40.6,29.7,29.83,ESE,109,3.0,5.0,65,0.00,,,0.00,Wunderground v.1.15,2013-03-05 12:52:00,
2013-03-05 07:53:00,40.6,29.7,29.83,ESE,112,3.0,5.0,65,0.00,,,0.00,Wunderground v.1.15,2013-03-05 12:53:00,
2013-03-05 07:54:00,40.6,29.7,29.83,ESE,113,3.0,5.0,65,0.00,,,0.00,Wunderground v.1.15,2013-03-05 12:54:00,
2013-03-05 07:56:00,40.6,29.7,29.83,ESE,102,3.0,5.0,65,0.00,,,0.00,Wunderground v.1.15,2013-03-05 12:56:00,
2013-03-05 07:59:00,40.4,29.9,29.83,ESE,104,4.0,5.0,66,0.00,,,0.00,Wunderground v.1.15,2013-03-05 12:59:00,
2013-03-05 08:01:00,40.4,29.9,29.83,East,97,4.0,6.0,66,0.00,,,0.00,Wunderground v.1.15,2013-03-05 13:01:00,
2013-03-05 08:02:00,40.4,29.9,29.83,ESE,110,5.0,6.0,66,0.00,,,0.00,Wunderground v.1.15,2013-03-05 13:02:00,
2013-03-05 08:04:00,40.4,29.9,29.83,ESE,121,5.0,6.0,66,0.00,,,0.00,Wunderground v.1.15,2013-03-05 13:04:00,
2013-03-05 08:05:00,40.4,30.3,29.83,ESE,121,5.0,6.0,67,0.00,,,0.00,Wunderground v.1.15,2013-03-05 13:05:00,
2013-03-05 08:07:00,40.3,30.2,29.83,ESE,121,4.0,6.0,67,0.00,,,0.00,Wunderground v.1.15,2013-03-05 13:07:00,
2013-03-05 08:10:00,40.1,30.7,29.83,East,89,4.0,4.0,69,0.00,,,0.01,Wunderground v.1.15,2013-03-05 13:10:00,
2013-03-05 08:12:00,40.0,31.0,29.83,East,99,3.0,4.0,70,0.00,,,0.01,Wunderground v.1.15,2013-03-05 13:12:00,
2013-03-05 08:13:00,39.8,31.2,29.83,East,99,3.0,4.0,71,0.00,,,0.01,Wunderground v.1.15,2013-03-05 13:13:00,
2013-03-05 08:15:00,39.7,31.4,29.83,ESE,109,3.0,5.0,72,0.00,,,0.01,Wunderground v.1.15,2013-03-05 13:15:00,
2013-03-05 08:18:00,39.4,31.5,29.83,ESE,112,3.0,5.0,73,0.00,,,0.01,Wunderground v.1.15,2013-03-05 13:18:00,
2013-03-05 08:19:00,39.4,31.8,29.83,ESE,112,3.0,5.0,74,0.00,,,0.01,Wunderground v.1.15,2013-03-05 13:19:00,
2013-03-05 08:20:00,39.4,31.8,29.83,ESE,112,3.0,3.0,74,0.00,,,0.01,Wunderground v.1.15,2013-03-05 13:20:00,
2013-03-05 08:22:00,39.3,31.7,29.83,ESE,112,3.0,6.0,74,0.00,,,0.01,Wunderground v.1.15,2013-03-05 13:22:00,
2013-03-05 08:23:00,39.3,32.0,29.83,ESE,107,3.0,6.0,75,0.00,,,0.01,Wunderground v.1.15,2013-03-05 13:23:00,
2013-03-05 08:25:00,39.3,32.0,29.83,ESE,109,3.0,6.0,75,0.00,,,0.01,Wunderground v.1.15,2013-03-05 13:25:00,
2013-03-05 08:27:00,39.1,31.8,29.83,ESE,109,3.0,6.0,75,0.00,,,0.01,Wunderground v.1.15,2013-03-05 13:27:00,
2013-03-05 08:28:00,39.1,32.2,29.83,ESE,104,3.0,6.0,76,0.00,,,0.01,Wunderground v.1.15,2013-03-05 13:28:00,
2013-03-05 08:31:00,39.0,32.1,29.82,ESE,103,3.0,6.0,76,0.00,,,0.01,Wunderground v.1.15,2013-03-05 13:31:00,
2013-03-05 08:32:00,39.0,32.1,29.82,ESE,106,3.0,6.0,76,0.00,,,0.01,Wunderground v.1.15,2013-03-05 13:32:00,
2013-03-05 08:35:00,39.0,32.4,29.82,ESE,103,3.0,6.0,77,0.00,,,0.01,Wunderground v.1.15,2013-03-05 13:35:00,
2013-03-05 08:36:00,39.0,32.4,29.82,ESE,112,3.0,6.0,77,0.00,,,0.01,Wunderground v.1.15,2013-03-05 13:36:00,
2013-03-05 08:37:00,39.0,32.4,29.82,ESE,112,3.0,6.0,77,0.00,,,0.01,Wunderground v.1.15,2013-03-05 13:37:00,
2013-03-05 08:39:00,39.0,32.7,29.82,ESE,112,3.0,6.0,78,0.00,,,0.01,Wunderground v.1.15,2013-03-05 13:39:00,
2013-03-05 08:41:00,39.0,32.7,29.82,ESE,112,2.0,3.0,78,0.00,,,0.01,Wunderground v.1.15,2013-03-05 13:41:00,
2013-03-05 08:42:00,39.0,33.0,29.82,ESE,112,2.0,3.0,79,0.00,,,0.01,Wunderground v.1.15,2013-03-05 13:42:00,
2013-03-05 08:44:00,39.0,33.0,29.82,ESE,112,1.0,3.0,79,0.00,,,0.01,Wunderground v.1.15,2013-03-05 13:44:00,
2013-03-05 08:45:00,39.0,33.0,29.82,ESE,112,1.0,3.0,79,0.00,,,0.01,Wunderground v.1.15,2013-03-05 13:45:00,
2013-03-05 08:50:00,39.0,33.0,29.82,ESE,112,0.0,0.0,79,0.00,,,0.01,Wunderground v.1.15,2013-03-05 13:50:00,
2013-03-05 08:52:00,39.0,33.0,29.82,ESE,106,0.0,2.0,79,0.00,,,0.01,Wunderground v.1.15,2013-03-05 13:52:00,
2013-03-05 08:56:00,39.0,33.4,29.82,East,80,1.0,2.0,80,0.00,,,0.01,Wunderground v.1.15,2013-03-05 13:56:00,
2013-03-05 08:57:00,39.0,33.4,29.82,East,80,1.0,2.0,80,0.00,,,0.01,Wunderground v.1.15,2013-03-05 13:57:00,
2013-03-05 08:58:00,39.0,33.4,29.82,East,80,1.0,2.0,80,0.00,,,0.01,Wunderground v.1.15,2013-03-05 13:58:00,
2013-03-05 09:01:00,39.0,33.4,29.82,ENE,76,1.0,2.0,80,0.00,,,0.01,Wunderground v.1.15,2013-03-05 14:01:00,
2013-03-05 09:04:00,39.1,33.5,29.82,East,86,2.0,4.0,80,0.00,,,0.01,Wunderground v.1.15,2013-03-05 14:04:00,
2013-03-05 09:07:00,39.1,33.5,29.82,East,85,2.0,4.0,80,0.00,,,0.01,Wunderground v.1.15,2013-03-05 14:07:00,
2013-03-05 09:08:00,39.1,33.5,29.82,East,85,2.0,4.0,80,0.00,,,0.01,Wunderground v.1.15,2013-03-05 14:08:00,
2013-03-05 09:11:00,39.1,33.5,29.82,East,80,3.0,3.0,80,0.00,,,0.01,Wunderground v.1.15,2013-03-05 14:11:00,
2013-03-05 09:12:00,39.1,33.5,29.82,East,93,3.0,3.0,80,0.00,,,0.01,Wunderground v.1.15,2013-03-05 14:12:00,
2013-03-05 09:15:00,39.1,33.5,29.81,ENE,78,3.0,6.0,80,0.00,,,0.01,Wunderground v.1.15,2013-03-05 14:15:00,
2013-03-05 09:16:00,39.0,33.4,29.81,East,92,3.0,6.0,80,0.00,,,0.01,Wunderground v.1.15,2013-03-05 14:16:00,
2013-03-05 09:17:00,39.0,33.7,29.81,East,82,4.0,6.0,81,0.00,,,0.01,Wunderground v.1.15,2013-03-05 14:17:00,
2013-03-05 09:21:00,39.0,33.7,29.81,East,99,4.0,4.0,81,0.00,,,0.01,Wunderground v.1.15,2013-03-05 14:21:00,
2013-03-05 09:22:00,39.0,33.7,29.81,East,100,4.0,4.0,81,0.00,,,0.01,Wunderground v.1.15,2013-03-05 14:22:00,
2013-03-05 09:24:00,39.0,34.0,29.81,East,100,4.0,4.0,82,0.00,,,0.01,Wunderground v.1.15,2013-03-05 14:24:00,
2013-03-05 09:27:00,39.0,34.0,29.81,East,86,4.0,4.0,82,0.00,,,0.01,Wunderground v.1.15,2013-03-05 14:27:00,
2013-03-05 09:28:00,39.0,34.0,29.81,East,88,3.0,4.0,82,0.00,,,0.01,Wunderground v.1.15,2013-03-05 14:28:00,
2013-03-05 09:30:00,39.0,34.3,29.80,ESE,103,3.0,3.0,83,0.00,,,0.01,Wunderground v.1.15,2013-03-05 14:30:00,
2013-03-05 09:31:00,39.0,34.3,29.80,East,95,3.0,3.0,83,0.00,,,0.01,Wunderground v.1.15,2013-03-05 14:31:00,
2013-03-05 09:35:00,39.1,34.4,29.80,East,96,2.0,5.0,83,0.00,,,0.01,Wunderground v.1.15,2013-03-05 14:35:00,
2013-03-05 09:37:00,39.1,34.4,29.80,ESE,103,3.0,6.0,83,0.00,,,0.01,Wunderground v.1.15,2013-03-05 14:37:00,
2013-03-05 09:38:00,39.0,34.3,29.80,ESE,114,3.0,6.0,83,0.00,,,0.01,Wunderground v.1.15,2013-03-05 14:38:00,
2013-03-05 09:39:00,39.0,34.3,29.80,ESE,114,3.0,6.0,83,0.00,,,0.01,Wunderground v.1.15,2013-03-05 14:39:00,
2013-03-05 09:43:00,39.0,34.3,29.80,ESE,116,4.0,6.0,83,0.00,,,0.01,Wunderground v.1.15,2013-03-05 14:43:00,
2013-03-05 09:44:00,38.8,34.1,29.80,ESE,104,5.0,6.0,83,0.00,,,0.01,Wunderground v.1.15,2013-03-05 14:44:00,
2013-03-05 09:45:00,38.8,34.1,29.79,East,99,5.0,7.0,83,0.00,,,0.01,Wunderground v.1.15,2013-03-05 14:45:00,
2013-03-05 09:47:00,38.8,34.1,29.79,East,92,5.0,7.0,83,0.00,,,0.01,Wunderground v.1.15,2013-03-05 14:47:00,
2013-03-05 09:48:00,38.8,34.4,29.79,East,97,4.0,7.0,84,0.00,,,0.01,Wunderground v.1.15,2013-03-05 14:48:00,
2013-03-05 09:50:00,38.8,34.4,29.79,East,97,4.0,4.0,84,0.00,,,0.01,Wunderground v.1.15,2013-03-05 14:50:00,
2013-03-05 09:52:00,38.8,34.4,29.79,ESE,103,4.0,6.0,84,0.00,,,0.01,Wunderground v.1.15,2013-03-05 14:52:00,
2013-03-05 09:53:00,38.8,34.4,29.79,ESE,106,4.0,6.0,84,0.00,,,0.01,Wunderground v.1.15,2013-03-05 14:53:00,
2013-03-05 09:57:00,38.8,34.4,29.79,East,92,4.0,6.0,84,0.00,,,0.01,Wunderground v.1.15,2013-03-05 14:57:00,
2013-03-05 09:58:00,38.8,34.4,29.79,East,92,4.0,6.0,84,0.00,,,0.01,Wunderground v.1.15,2013-03-05 14:58:00,
2013-03-05 10:00:00,38.8,34.7,29.79,East,100,4.0,5.0,85,0.00,,,0.01,Wunderground v.1.15,2013-03-05 15:00:00,
2013-03-05 10:05:00,38.8,34.7,29.79,ESE,104,4.0,5.0,85,0.00,,,0.01,Wunderground v.1.15,2013-03-05 15:05:00,
2013-03-05 10:06:00,38.8,34.7,29.79,ESE,104,4.0,5.0,85,0.00,,,0.01,Wunderground v.1.15,2013-03-05 15:06:00,
2013-03-05 10:07:00,38.8,34.7,29.79,ESE,106,3.0,5.0,85,0.00,,,0.01,Wunderground v.1.15,2013-03-05 15:07:00,
2013-03-05 10:09:00,38.8,34.7,29.79,East,92,3.0,5.0,85,0.00,,,0.01,Wunderground v.1.15,2013-03-05 15:09:00,
2013-03-05 10:10:00,38.8,35.0,29.79,East,90,3.0,3.0,86,0.00,,,0.01,Wunderground v.1.15,2013-03-05 15:10:00,
2013-03-05 10:14:00,38.8,35.0,29.79,ESE,102,3.0,4.0,86,0.00,,,0.01,Wunderground v.1.15,2013-03-05 15:14:00,
2013-03-05 10:17:00,38.8,35.0,29.79,ESE,106,4.0,5.0,86,0.00,,,0.01,Wunderground v.1.15,2013-03-05 15:17:00,
2013-03-05 10:18:00,38.8,35.3,29.79,ESE,102,4.0,5.0,87,0.00,,,0.01,Wunderground v.1.15,2013-03-05 15:18:00,
2013-03-05 10:19:00,38.8,35.3,29.79,ESE,102,4.0,5.0,87,0.00,,,0.01,Wunderground v.1.15,2013-03-05 15:19:00,
2013-03-05 10:23:00,38.7,35.2,29.79,ESE,104,4.0,4.0,87,0.00,,,0.01,Wunderground v.1.15,2013-03-05 15:23:00,
2013-03-05 10:26:00,38.7,35.5,29.79,ESE,104,3.0,4.0,88,0.00,,,0.01,Wunderground v.1.15,2013-03-05 15:26:00,
2013-03-05 10:28:00,38.7,35.5,29.79,ESE,104,2.0,4.0,88,0.00,,,0.01,Wunderground v.1.15,2013-03-05 15:28:00,
2013-03-05 10:29:00,38.7,35.5,29.79,ESE,104,2.0,4.0,88,0.00,,,0.01,Wunderground v.1.15,2013-03-05 15:29:00,
2013-03-05 10:33:00,38.7,35.5,29.78,ESE,114,2.0,3.0,88,0.00,,,0.01,Wunderground v.1.15,2013-03-05 15:33:00,
2013-03-05 10:36:00,38.8,35.6,29.78,ESE,114,2.0,3.0,88,0.00,,,0.01,Wunderground v.1.15,2013-03-05 15:36:00,
2013-03-05 10:39:00,38.8,35.8,29.78,East,100,2.0,3.0,89,0.00,,,0.01,Wunderground v.1.15,2013-03-05 15:39:00,
2013-03-05 10:41:00,38.8,35.8,29.78,East,100,3.0,3.0,89,0.00,,,0.01,Wunderground v.1.15,2013-03-05 15:41:00,
2013-03-05 10:45:00,38.8,35.8,29.77,East,100,3.0,3.0,89,0.00,,,0.01,Wunderground v.1.15,2013-03-05 15:45:00,
2013-03-05 10:46:00,38.8,35.8,29.77,ENE,71,3.0,3.0,89,0.00,,,0.01,Wunderground v.1.15,2013-03-05 15:46:00,
2013-03-05 10:48:00,38.8,35.8,29.77,ENE,71,2.0,3.0,89,0.00,,,0.01,Wunderground v.1.15,2013-03-05 15:48:00,
2013-03-05 10:51:00,39.0,36.3,29.77,ENE,73,2.0,3.0,90,0.00,,,0.01,Wunderground v.1.15,2013-03-05 15:51:00,
2013-03-05 10:53:00,39.0,36.3,29.77,ENE,73,2.0,5.0,90,0.00,,,0.01,Wunderground v.1.15,2013-03-05 15:53:00,
2013-03-05 10:54:00,39.0,36.3,29.77,East,86,2.0,5.0,90,0.00,,,0.01,Wunderground v.1.15,2013-03-05 15:54:00,
2013-03-05 10:56:00,39.1,36.4,29.77,East,86,2.0,5.0,90,0.00,,,0.01,Wunderground v.1.15,2013-03-05 15:56:00,
2013-03-05 10:59:00,39.1,36.4,29.77,ESE,109,2.0,5.0,90,0.00,,,0.01,Wunderground v.1.15,2013-03-05 15:59:00,
2013-03-05 11:00:00,39.1,36.4,29.76,ESE,109,2.0,3.0,90,0.00,,,0.01,Wunderground v.1.15,2013-03-05 16:00:00,
2013-03-05 11:02:00,39.1,36.4,29.76,ESE,109,2.0,3.0,90,0.00,,,0.01,Wunderground v.1.15,2013-03-05 16:02:00,
2013-03-05 11:05:00,39.0,36.3,29.76,ESE,109,2.0,3.0,90,0.00,,,0.01,Wunderground v.1.15,2013-03-05 16:05:00,
2013-03-05 11:06:00,39.0,36.3,29.76,ESE,109,2.0,3.0,90,0.00,,,0.01,Wunderground v.1.15,2013-03-05 16:06:00,
2013-03-05 11:10:00,39.0,36.3,29.76,ESE,109,2.0,2.0,90,0.00,,,0.01,Wunderground v.1.15,2013-03-05 16:10:00,
2013-03-05 11:12:00,39.0,36.6,29.76,ESE,109,2.0,2.0,91,0.00,,,0.01,Wunderground v.1.15,2013-03-05 16:12:00,
2013-03-05 11:14:00,39.0,36.6,29.76,ESE,109,2.0,2.0,91,0.00,,,0.01,Wunderground v.1.15,2013-03-05 16:14:00,
2013-03-05 11:17:00,39.0,36.6,29.76,ESE,109,1.0,2.0,91,0.00,,,0.01,Wunderground v.1.15,2013-03-05 16:17:00,
2013-03-05 11:19:00,39.0,36.6,29.76,ESE,106,1.0,2.0,91,0.00,,,0.01,Wunderground v.1.15,2013-03-05 16:19:00,
2013-03-05 11:21:00,39.0,36.6,29.76,ESE,106,1.0,2.0,91,0.00,,,0.01,Wunderground v.1.15,2013-03-05 16:21:00,
2013-03-05 11:22:00,39.0,36.6,29.76,ESE,106,1.0,2.0,91,0.00,,,0.01,Wunderground v.1.15,2013-03-05 16:22:00,
2013-03-05 11:24:00,39.0,36.6,29.76,East,85,2.0,2.0,91,0.00,,,0.01,Wunderground v.1.15,2013-03-05 16:24:00,
2013-03-05 11:26:00,39.0,36.6,29.76,East,85,1.0,2.0,91,0.00,,,0.01,Wunderground v.1.15,2013-03-05 16:26:00,
2013-03-05 11:27:00,39.0,36.6,29.76,East,83,1.0,2.0,91,0.00,,,0.01,Wunderground v.1.15,2013-03-05 16:27:00,
2013-03-05 11:30:00,39.0,36.6,29.75,East,85,1.0,2.0,91,0.00,,,0.01,Wunderground v.1.15,2013-03-05 16:30:00,
2013-03-05 11:33:00,39.0,36.6,29.75,East,92,1.0,3.0,91,0.00,,,0.01,Wunderground v.1.15,2013-03-05 16:33:00,
2013-03-05 11:34:00,39.0,36.6,29.75,East,92,1.0,3.0,91,0.00,,,0.01,Wunderground v.1.15,2013-03-05 16:34:00,
2013-03-05 11:36:00,39.1,36.7,29.75,East,92,2.0,3.0,91,0.00,,,0.01,Wunderground v.1.15,2013-03-05 16:36:00,
2013-03-05 11:39:00,39.1,36.7,29.75,East,97,2.0,3.0,91,0.00,,,0.01,Wunderground v.1.15,2013-03-05 16:39:00,
2013-03-05 11:40:00,39.3,36.9,29.75,East,97,2.0,2.0,91,0.00,,,0.01,Wunderground v.1.15,2013-03-05 16:40:00,
2013-03-05 11:42:00,39.1,36.7,29.75,East,96,2.0,2.0,91,0.00,,,0.01,Wunderground v.1.15,2013-03-05 16:42:00,
2013-03-05 11:44:00,39.3,36.9,29.75,East,96,1.0,2.0,91,0.00,,,0.01,Wunderground v.1.15,2013-03-05 16:44:00,
2013-03-05 11:46:00,39.3,36.9,29.74,East,79,1.0,2.0,91,0.00,,,0.01,Wunderground v.1.15,2013-03-05 16:46:00,
2013-03-05 11:50:00,39.3,36.9,29.74,East,89,2.0,3.0,91,0.00,,,0.01,Wunderground v.1.15,2013-03-05 16:50:00,
2013-03-05 11:51:00,39.3,36.9,29.74,ESE,103,2.0,3.0,91,0.00,,,0.01,Wunderground v.1.15,2013-03-05 16:51:00,
2013-03-05 11:52:00,39.3,36.9,29.74,ESE,103,2.0,3.0,91,0.00,,,0.01,Wunderground v.1.15,2013-03-05 16:52:00,
2013-03-05 11:57:00,39.4,37.3,29.74,ESE,109,2.0,3.0,92,0.00,,,0.01,Wunderground v.1.15,2013-03-05 16:57:00,
2013-03-05 11:58:00,39.4,37.3,29.74,ESE,109,2.0,3.0,92,0.00,,,0.01,Wunderground v.1.15,2013-03-05 16:58:00,
2013-03-05 12:00:00,39.4,37.3,29.73,ENE,78,2.0,3.0,92,0.00,,,0.01,Wunderground v.1.15,2013-03-05 17:00:00,
2013-03-05 12:01:00,39.4,37.3,29.73,ENE,78,2.0,3.0,92,0.00,,,0.01,Wunderground v.1.15,2013-03-05 17:01:00,
2013-03-05 12:03:00,39.4,37.3,29.73,East,96,2.0,3.0,92,0.00,,,0.01,Wunderground v.1.15,2013-03-05 17:03:00,
2013-03-05 12:04:00,39.4,37.3,29.73,East,96,2.0,3.0,92,0.00,,,0.01,Wunderground v.1.15,2013-03-05 17:04:00,
2013-03-05 12:08:00,39.6,37.5,29.73,ESE,102,3.0,3.0,92,0.00,,,0.01,Wunderground v.1.15,2013-03-05 17:08:00,
2013-03-05 12:10:00,39.7,37.6,29.73,ESE,104,2.0,3.0,92,0.00,,,0.01,Wunderground v.1.15,2013-03-05 17:10:00,
2013-03-05 12:11:00,39.7,37.6,29.73,ESE,104,3.0,3.0,92,0.00,,,0.01,Wunderground v.1.15,2013-03-05 17:11:00,
2013-03-05 12:15:00,39.8,37.7,29.73,ESE,104,2.0,3.0,92,0.00,,,0.01,Wunderground v.1.15,2013-03-05 17:15:00,
2013-03-05 12:16:00,39.8,37.7,29.73,ESE,104,2.0,3.0,92,0.00,,,0.01,Wunderground v.1.15,2013-03-05 17:16:00,
2013-03-05 12:17:00,39.8,37.7,29.73,East,82,2.0,3.0,92,0.00,,,0.01,Wunderground v.1.15,2013-03-05 17:17:00,
2013-03-05 12:20:00,39.7,37.6,29.73,East,79,2.0,2.0,92,0.00,,,0.01,Wunderground v.1.15,2013-03-05 17:20:00,
2013-03-05 12:23:00,39.7,37.6,29.73,East,89,2.0,2.0,92,0.00,,,0.01,Wunderground v.1.15,2013-03-05 17:23:00,
2013-03-05 12:24:00,39.7,37.6,29.73,East,89,2.0,2.0,92,0.00,,,0.01,Wunderground v.1.15,2013-03-05 17:24:00,
2013-03-05 12:25:00,39.7,37.6,29.73,East,90,2.0,2.0,92,0.00,,,0.01,Wunderground v.1.15,2013-03-05 17:25:00,
2013-03-05 12:29:00,39.7,37.6,29.73,East,90,2.0,2.0,92,0.00,,,0.01,Wunderground v.1.15,2013-03-05 17:29:00,
2013-03-05 12:30:00,39.7,37.6,29.73,East,90,2.0,2.0,92,0.00,,,0.01,Wunderground v.1.15,2013-03-05 17:30:00,
2013-03-05 12:33:00,39.8,37.7,29.73,East,85,2.0,2.0,92,0.00,,,0.01,Wunderground v.1.15,2013-03-05 17:33:00,
2013-03-05 12:35:00,39.8,37.7,29.73,ESE,107,2.0,3.0,92,0.00,,,0.01,Wunderground v.1.15,2013-03-05 17:35:00,
2013-03-05 12:36:00,39.8,37.7,29.73,ESE,109,2.0,3.0,92,0.00,,,0.01,Wunderground v.1.15,2013-03-05 17:36:00,
2013-03-05 12:38:00,39.8,37.7,29.73,East,80,2.0,3.0,92,0.00,,,0.01,Wunderground v.1.15,2013-03-05 17:38:00,
2013-03-05 12:41:00,39.8,37.7,29.73,East,80,2.0,2.0,92,0.00,,,0.01,Wunderground v.1.15,2013-03-05 17:41:00,
2013-03-05 12:44:00,39.8,37.7,29.73,East,83,2.0,3.0,92,0.00,,,0.01,Wunderground v.1.15,2013-03-05 17:44:00,
2013-03-05 12:45:00,39.8,37.7,29.71,East,83,2.0,3.0,92,0.00,,,0.01,Wunderground v.1.15,2013-03-05 17:45:00,
2013-03-05 12:47:00,39.8,37.7,29.71,East,89,2.0,3.0,92,0.00,,,0.01,Wunderground v.1.15,2013-03-05 17:47:00,
2013-03-05 12:50:00,39.8,37.7,29.71,East,79,1.0,1.0,92,0.00,,,0.01,Wunderground v.1.15,2013-03-05 17:50:00,
2013-03-05 12:53:00,40.0,37.9,29.71,East,79,1.0,1.0,92,0.00,,,0.01,Wunderground v.1.15,2013-03-05 17:53:00,
2013-03-05 12:54:00,40.0,37.9,29.71,East,79,1.0,1.0,92,0.00,,,0.01,Wunderground v.1.15,2013-03-05 17:54:00,
2013-03-05 12:55:00,40.0,37.9,29.71,East,79,0.0,1.0,92,0.00,,,0.01,Wunderground v.1.15,2013-03-05 17:55:00,
2013-03-05 12:58:00,40.0,37.9,29.71,East,79,0.0,1.0,92,0.00,,,0.01,Wunderground v.1.15,2013-03-05 17:58:00,
2013-03-05 13:01:00,40.0,38.1,29.71,East,79,0.0,0.0,93,0.00,,,0.01,Wunderground v.1.15,2013-03-05 18:01:00,
2013-03-05 13:03:00,40.0,38.1,29.71,East,79,0.0,0.0,93,0.00,,,0.01,Wunderground v.1.15,2013-03-05 18:03:00,
2013-03-05 13:04:00,40.0,37.9,29.71,East,79,0.0,0.0,92,0.00,,,0.01,Wunderground v.1.15,2013-03-05 18:04:00,
2013-03-05 13:06:00,40.0,37.9,29.71,East,79,0.0,0.0,92,0.00,,,0.01,Wunderground v.1.15,2013-03-05 18:06:00,
2013-03-05 13:11:00,40.0,38.1,29.71,East,79,0.0,0.0,93,0.00,,,0.01,Wunderground v.1.15,2013-03-05 18:11:00,
2013-03-05 13:12:00,40.0,37.9,29.71,East,79,0.0,0.0,92,0.00,,,0.01,Wunderground v.1.15,2013-03-05 18:12:00,
2013-03-05 13:15:00,40.0,37.9,29.70,East,79,0.0,0.0,92,0.00,,,0.01,Wunderground v.1.15,2013-03-05 18:15:00,
2013-03-05 13:17:00,40.0,37.9,29.70,East,79,0.0,0.0,92,0.00,,,0.01,Wunderground v.1.15,2013-03-05 18:17:00,
2013-03-05 13:18:00,40.0,37.9,29.70,East,79,0.0,0.0,92,0.00,,,0.01,Wunderground v.1.15,2013-03-05 18:18:00,
2013-03-05 13:19:00,40.0,38.1,29.70,East,79,0.0,0.0,93,0.00,,,0.01,Wunderground v.1.15,2013-03-05 18:19:00,
2013-03-05 13:24:00,40.0,37.9,29.70,East,79,0.0,0.0,92,0.00,,,0.01,Wunderground v.1.15,2013-03-05 18:24:00,
2013-03-05 13:27:00,40.0,38.1,29.70,East,79,0.0,0.0,93,0.00,,,0.01,Wunderground v.1.15,2013-03-05 18:27:00,
2013-03-05 13:28:00,40.0,38.1,29.70,East,79,0.0,0.0,93,0.00,,,0.01,Wunderground v.1.15,2013-03-05 18:28:00,
2013-03-05 13:29:00,40.0,38.1,29.70,East,79,0.0,0.0,93,0.00,,,0.01,Wunderground v.1.15,2013-03-05 18:29:00,
2013-03-05 13:34:00,40.1,38.2,29.70,East,79,0.0,0.0,93,0.00,,,0.01,Wunderground v.1.15,2013-03-05 18:34:00,
2013-03-05 13:36:00,40.1,38.2,29.70,East,79,0.0,0.0,93,0.00,,,0.02,Wunderground v.1.15,2013-03-05 18:36:00,
2013-03-05 13:39:00,40.1,38.2,29.70,East,79,0.0,0.0,93,0.00,,,0.02,Wunderground v.1.15,2013-03-05 18:39:00,
2013-03-05 13:41:00,40.1,38.2,29.70,East,79,0.0,0.0,93,0.00,,,0.02,Wunderground v.1.15,2013-03-05 18:41:00,
2013-03-05 13:42:00,40.1,38.2,29.70,East,79,0.0,0.0,93,0.00,,,0.02,Wunderground v.1.15,2013-03-05 18:42:00,
2013-03-05 13:46:00,40.1,38.2,29.69,East,79,0.0,0.0,93,0.07,,,0.03,Wunderground v.1.15,2013-03-05 18:46:00,
2013-03-05 13:48:00,40.1,38.2,29.69,East,79,0.0,0.0,93,0.07,,,0.03,Wunderground v.1.15,2013-03-05 18:48:00,
2013-03-05 13:51:00,40.1,38.2,29.69,East,79,0.0,0.0,93,0.07,,,0.03,Wunderground v.1.15,2013-03-05 18:51:00,
2013-03-05 13:52:00,40.1,38.0,29.69,East,79,0.0,0.0,92,0.07,,,0.03,Wunderground v.1.15,2013-03-05 18:52:00,
2013-03-05 13:55:00,40.1,38.2,29.69,East,79,0.0,0.0,93,0.05,,,0.03,Wunderground v.1.15,2013-03-05 18:55:00,
2013-03-05 13:58:00,40.1,38.2,29.69,East,79,0.0,0.0,93,0.05,,,0.04,Wunderground v.1.15,2013-03-05 18:58:00,
2013-03-05 13:59:00,40.1,38.2,29.69,East,79,0.0,0.0,93,0.05,,,0.04,Wunderground v.1.15,2013-03-05 18:59:00,
2013-03-05 14:00:00,40.1,38.0,29.68,East,79,0.0,0.0,92,0.05,,,0.04,Wunderground v.1.15,2013-03-05 19:00:00,
2013-03-05 14:01:00,40.1,38.0,29.68,East,79,0.0,0.0,92,0.05,,,0.04,Wunderground v.1.15,2013-03-05 19:01:00,
2013-03-05 14:03:00,40.1,38.2,29.68,East,79,0.0,0.0,93,0.05,,,0.04,Wunderground v.1.15,2013-03-05 19:03:00,
2013-03-05 14:04:00,40.1,38.2,29.68,East,79,0.0,0.0,93,0.05,,,0.04,Wunderground v.1.15,2013-03-05 19:04:00,
2013-03-05 14:06:00,40.1,38.2,29.68,ENE,72,0.0,0.0,93,0.05,,,0.04,Wunderground v.1.15,2013-03-05 19:06:00,
2013-03-05 14:09:00,40.1,38.2,29.68,NNW,332,0.0,0.0,93,0.05,,,0.05,Wunderground v.1.15,2013-03-05 19:09:00,
2013-03-05 14:11:00,40.1,38.2,29.68,NNW,332,0.0,0.0,93,0.05,,,0.05,Wunderground v.1.15,2013-03-05 19:11:00,
2013-03-05 14:12:00,40.0,38.1,29.68,NNW,332,0.0,0.0,93,0.05,,,0.05,Wunderground v.1.15,2013-03-05 19:12:00,
2013-03-05 14:14:00,40.0,38.1,29.68,NNW,332,0.0,0.0,93,0.05,,,0.05,Wunderground v.1.15,2013-03-05 19:14:00,
2013-03-05 14:15:00,40.0,38.1,29.68,NNW,332,0.0,0.0,93,0.05,,,0.05,Wunderground v.1.15,2013-03-05 19:15:00,
2013-03-05 14:19:00,40.0,38.1,29.68,NNW,332,0.0,0.0,93,0.05,,,0.05,Wunderground v.1.15,2013-03-05 19:19:00,
2013-03-05 14:20:00,40.0,38.1,29.68,NNW,332,0.0,0.0,93,0.05,,,0.06,Wunderground v.1.15,2013-03-05 19:20:00,
2013-03-05 14:24:00,40.0,38.1,29.68,NNW,332,0.0,0.0,93,0.05,,,0.06,Wunderground v.1.15,2013-03-05 19:24:00,
2013-03-05 14:29:00,40.1,38.2,29.68,NNW,332,0.0,0.0,93,0.05,,,0.06,Wunderground v.1.15,2013-03-05 19:29:00,
2013-03-05 14:30:00,40.1,38.2,29.67,NNW,332,0.0,0.0,93,0.05,,,0.06,Wunderground v.1.15,2013-03-05 19:30:00,
2013-03-05 14:31:00,40.1,38.2,29.67,NNW,332,0.0,0.0,93,0.05,,,0.06,Wunderground v.1.15,2013-03-05 19:31:00,
2013-03-05 14:34:00,40.1,38.2,29.67,NNW,330,0.0,0.0,93,0.04,,,0.06,Wunderground v.1.15,2013-03-05 19:34:00,
2013-03-05 14:35:00,40.1,38.2,29.67,NNW,330,0.0,0.0,93,0.04,,,0.06,Wunderground v.1.15,2013-03-05 19:35:00,
2013-03-05 14:37:00,40.1,38.2,29.67,NW,322,0.0,0.0,93,0.00,,,0.06,Wunderground v.1.15,2013-03-05 19:37:00,
2013-03-05 14:38:00,40.1,38.2,29.67,NW,322,0.0,0.0,93,0.00,,,0.07,Wunderground v.1.15,2013-03-05 19:38:00,
2013-03-05 14:41:00,40.1,38.2,29.67,WNW,296,0.0,0.0,93,0.00,,,0.07,Wunderground v.1.15,2013-03-05 19:41:00,
2013-03-05 14:43:00,40.1,38.2,29.67,NW,323,0.0,0.0,93,0.00,,,0.07,Wunderground v.1.15,2013-03-05 19:43:00,
2013-03-05 14:44:00,40.1,38.2,29.67,NW,323,0.0,0.0,93,0.00,,,0.07,Wunderground v.1.15,2013-03-05 19:44:00,
2013-03-05 14:46:00,40.1,38.2,29.67,NW,315,0.0,0.0,93,0.00,,,0.07,Wunderground v.1.15,2013-03-05 19:46:00,
2013-03-05 14:48:00,40.1,38.2,29.67,NW,315,0.0,0.0,93,0.00,,,0.07,Wunderground v.1.15,2013-03-05 19:48:00,
2013-03-05 14:50:00,40.1,38.2,29.67,NW,315,0.0,0.0,93,0.00,,,0.07,Wunderground v.1.15,2013-03-05 19:50:00,
2013-03-05 14:51:00,40.1,38.2,29.67,NW,316,0.0,0.0,93,0.00,,,0.07,Wunderground v.1.15,2013-03-05 19:51:00,
2013-03-05 14:52:00,40.1,38.2,29.67,NW,316,0.0,0.0,93,0.04,,,0.08,Wunderground v.1.15,2013-03-05 19:52:00,
2013-03-05 14:55:00,40.1,38.2,29.67,NW,316,0.0,0.0,93,0.04,,,0.08,Wunderground v.1.15,2013-03-05 19:55:00,
2013-03-05 14:57:00,40.1,38.2,29.67,WNW,299,0.0,0.0,93,0.04,,,0.08,Wunderground v.1.15,2013-03-05 19:57:00,
2013-03-05 14:59:00,40.1,38.2,29.67,NW,306,0.0,0.0,93,0.04,,,0.08,Wunderground v.1.15,2013-03-05 19:59:00,
2013-03-05 15:00:00,40.1,38.2,29.67,NW,320,0.0,0.0,93,0.04,,,0.08,Wunderground v.1.15,2013-03-05 20:00:00,
2013-03-05 15:02:00,40.1,38.2,29.67,NNW,330,0.0,0.0,93,0.04,,,0.08,Wunderground v.1.15,2013-03-05 20:02:00,
2013-03-05 15:05:00,40.0,38.1,29.67,WNW,289,0.0,4.0,93,0.05,,,0.09,Wunderground v.1.15,2013-03-05 20:05:00,
2013-03-05 15:06:00,40.0,38.1,29.67,WNW,295,0.0,4.0,93,0.05,,,0.09,Wunderground v.1.15,2013-03-05 20:06:00,
2013-03-05 15:09:00,40.0,38.1,29.67,NW,322,1.0,4.0,93,0.05,,,0.09,Wunderground v.1.15,2013-03-05 20:09:00,
2013-03-05 15:11:00,40.0,38.1,29.67,West,281,1.0,6.0,93,0.11,,,0.10,Wunderground v.1.15,2013-03-05 20:11:00,
2013-03-05 15:12:00,40.0,38.1,29.67,WNW,294,1.0,7.0,93,0.11,,,0.10,Wunderground v.1.15,2013-03-05 20:12:00,
2013-03-05 15:13:00,40.0,38.1,29.67,WNW,282,1.0,7.0,93,0.11,,,0.10,Wunderground v.1.15,2013-03-05 20:13:00,
2013-03-05 15:17:00,40.0,38.1,29.67,WNW,287,3.0,8.0,93,0.10,,,0.11,Wunderground v.1.15,2013-03-05 20:17:00,
2013-03-05 15:18:00,40.0,38.1,29.67,NW,313,3.0,8.0,93,0.10,,,0.11,Wunderground v.1.15,2013-03-05 20:18:00,
2013-03-05 15:21:00,39.7,37.6,29.67,NW,308,5.0,11.0,92,0.10,,,0.11,Wunderground v.1.15,2013-03-05 20:21:00,
2013-03-05 15:23:00,39.4,37.3,29.67,WNW,298,6.0,15.0,92,0.11,,,0.12,Wunderground v.1.15,2013-03-05 20:23:00,
2013-03-05 15:26:00,39.1,37.0,29.67,WNW,299,7.0,15.0,92,0.11,,,0.12,Wunderground v.1.15,2013-03-05 20:26:00,
2013-03-05 15:28:00,39.0,36.9,29.67,WNW,296,7.0,15.0,92,0.08,,,0.12,Wunderground v.1.15,2013-03-05 20:28:00,
2013-03-05 15:33:00,38.7,36.3,29.69,NW,306,7.0,12.0,91,0.15,,,0.14,Wunderground v.1.15,2013-03-05 20:33:00,
2013-03-05 15:34:00,38.7,36.3,29.69,WNW,282,7.0,12.0,91,0.15,,,0.14,Wunderground v.1.15,2013-03-05 20:34:00,
2013-03-05 15:36:00,38.4,36.0,29.69,WNW,298,8.0,12.0,91,0.15,,,0.14,Wunderground v.1.15,2013-03-05 20:36:00,
2013-03-05 15:38:00,38.1,35.7,29.69,NNW,328,8.0,12.0,91,0.16,,,0.15,Wunderground v.1.15,2013-03-05 20:38:00,
2013-03-05 15:40:00,38.0,35.6,29.69,NW,319,8.0,8.0,91,0.15,,,0.15,Wunderground v.1.15,2013-03-05 20:40:00,
2013-03-05 15:41:00,37.8,35.4,29.69,West,280,8.0,8.0,91,0.15,,,0.16,Wunderground v.1.15,2013-03-05 20:41:00,
2013-03-05 15:44:00,37.5,34.8,29.69,NW,316,7.0,10.0,90,0.19,,,0.17,Wunderground v.1.15,2013-03-05 20:44:00,
2013-03-05 15:45:00,37.4,34.7,29.70,West,261,7.0,10.0,90,0.19,,,0.17,Wunderground v.1.15,2013-03-05 20:45:00,
2013-03-05 15:47:00,37.1,34.4,29.70,NW,315,7.0,10.0,90,0.19,,,0.18,Wunderground v.1.15,2013-03-05 20:47:00,
2013-03-05 15:49:00,36.8,34.1,29.70,WNW,298,6.0,10.0,90,0.19,,,0.18,Wunderground v.1.15,2013-03-05 20:49:00,
2013-03-05 15:51:00,36.5,33.8,29.70,NNW,329,6.0,14.0,90,0.16,,,0.19,Wunderground v.1.15,2013-03-05 20:51:00,
2013-03-05 15:52:00,36.4,33.7,29.70,NW,306,6.0,14.0,90,0.16,,,0.19,Wunderground v.1.15,2013-03-05 20:52:00,
2013-03-05 15:53:00,36.3,33.6,29.70,WNW,291,6.0,14.0,90,0.16,,,0.19,Wunderground v.1.15,2013-03-05 20:53:00,
2013-03-05 15:55:00,36.0,33.4,29.70,NW,306,7.0,14.0,90,0.17,,,0.20,Wunderground v.1.15,2013-03-05 20:55:00,
2013-03-05 15:56:00,35.8,33.2,29.70,WNW,292,6.0,14.0,90,0.17,,,0.20,Wunderground v.1.15,2013-03-05 20:56:00,
2013-03-05 15:59:00,35.7,33.1,29.70,WNW,285,7.0,14.0,90,0.11,,,0.20,Wunderground v.1.15,2013-03-05 20:59:00,
2013-03-05 16:00:00,35.5,32.9,29.71,NW,312,7.0,7.0,90,0.10,,,0.21,Wunderground v.1.15,2013-03-05 21:00:00,
2013-03-05 16:03:00,35.4,32.8,29.71,WSW,244,6.0,10.0,90,0.10,,,0.21,Wunderground v.1.15,2013-03-05 21:03:00,
2013-03-05 16:04:00,35.2,32.6,29.71,NW,309,6.0,10.0,90,0.10,,,0.21,Wunderground v.1.15,2013-03-05 21:04:00,
2013-03-05 16:06:00,34.9,32.3,29.71,West,278,5.0,10.0,90,0.10,,,0.21,Wunderground v.1.15,2013-03-05 21:06:00,
2013-03-05 16:08:00,34.8,32.2,29.71,West,260,5.0,10.0,90,0.07,,,0.21,Wunderground v.1.15,2013-03-05 21:08:00,
2013-03-05 16:12:00,34.5,32.1,29.71,WNW,288,5.0,5.0,91,0.05,,,0.21,Wunderground v.1.15,2013-03-05 21:12:00,
2013-03-05 16:15:00,34.2,31.8,29.72,SW,232,4.0,5.0,91,0.04,,,0.22,Wunderground v.1.15,2013-03-05 21:15:00,
2013-03-05 16:17:00,34.0,31.6,29.72,WNW,287,4.0,5.0,91,0.04,,,0.22,Wunderground v.1.15,2013-03-05 21:17:00,
2013-03-05 16:18:00,34.0,31.6,29.72,WNW,287,4.0,5.0,91,0.04,,,0.22,Wunderground v.1.15,2013-03-05 21:18:00,
2013-03-05 16:20:00,33.9,31.6,29.72,WNW,302,4.0,6.0,91,0.04,,,0.22,Wunderground v.1.15,2013-03-05 21:20:00,
2013-03-05 16:22:00,33.7,31.4,29.72,West,268,4.0,6.0,91,0.04,,,0.22,Wunderground v.1.15,2013-03-05 21:22:00,
2013-03-05 16:23:00,33.7,31.4,29.72,West,272,4.0,13.0,91,0.04,,,0.22,Wunderground v.1.15,2013-03-05 21:23:00,
2013-03-05 16:25:00,33.6,31.3,29.72,NNW,329,5.0,13.0,91,0.04,,,0.22,Wunderground v.1.15,2013-03-05 21:25:00,
2013-03-05 16:28:00,33.4,31.1,29.72,West,277,5.0,13.0,91,0.04,,,0.22,Wunderground v.1.15,2013-03-05 21:28:00,
2013-03-05 16:30:00,33.4,31.1,29.72,West,264,5.0,5.0,91,0.04,,,0.22,Wunderground v.1.15,2013-03-05 21:30:00,
2013-03-05 16:32:00,33.3,31.0,29.72,West,278,6.0,13.0,91,0.00,,,0.22,Wunderground v.1.15,2013-03-05 21:32:00,
2013-03-05 16:36:00,33.2,30.9,29.72,WNW,284,6.0,13.0,91,0.00,,,0.22,Wunderground v.1.15,2013-03-05 21:36:00,
2013-03-05 16:37:00,33.2,31.1,29.72,West,281,6.0,13.0,92,0.00,,,0.22,Wunderground v.1.15,2013-03-05 21:37:00,
2013-03-05 16:39:00,33.2,31.1,29.72,WNW,285,6.0,13.0,92,0.00,,,0.22,Wunderground v.1.15,2013-03-05 21:39:00,
2013-03-05 16:41:00,33.2,31.1,29.72,WNW,295,5.0,6.0,92,0.00,,,0.22,Wunderground v.1.15,2013-03-05 21:41:00,
2013-03-05 16:44:00,33.2,31.1,29.72,West,264,5.0,8.0,92,0.00,,,0.22,Wunderground v.1.15,2013-03-05 21:44:00,
2013-03-05 16:46:00,33.0,30.9,29.73,West,263,5.0,12.0,92,0.00,,,0.22,Wunderground v.1.15,2013-03-05 21:46:00,
2013-03-05 16:47:00,33.0,30.9,29.73,WNW,285,5.0,12.0,92,0.00,,,0.22,Wunderground v.1.15,2013-03-05 21:47:00,
2013-03-05 16:49:00,33.0,30.9,29.73,WNW,301,5.0,12.0,92,0.00,,,0.22,Wunderground v.1.15,2013-03-05 21:49:00,
2013-03-05 16:53:00,33.0,30.9,29.73,WNW,296,6.0,7.0,92,0.00,,,0.22,Wunderground v.1.15,2013-03-05 21:53:00,
2013-03-05 16:54:00,33.0,30.9,29.73,WNW,282,6.0,7.0,92,0.00,,,0.22,Wunderground v.1.15,2013-03-05 21:54:00,
2013-03-05 16:55:00,33.0,30.9,29.73,NW,315,6.0,7.0,92,0.00,,,0.22,Wunderground v.1.15,2013-03-05 21:55:00,
2013-03-05 16:56:00,33.0,30.9,29.73,West,271,6.0,7.0,92,0.00,,,0.22,Wunderground v.1.15,2013-03-05 21:56:00,
2013-03-05 16:59:00,33.0,30.9,29.73,WNW,289,5.0,7.0,92,0.00,,,0.22,Wunderground v.1.15,2013-03-05 21:59:00,
2013-03-05 17:02:00,32.9,30.8,29.73,SW,230,4.0,6.0,92,0.00,,,0.22,Wunderground v.1.15,2013-03-05 22:02:00,
2013-03-05 17:04:00,32.9,30.8,29.73,WNW,287,4.0,6.0,92,0.00,,,0.22,Wunderground v.1.15,2013-03-05 22:04:00,
2013-03-05 17:07:00,32.9,30.8,29.73,NW,304,5.0,6.0,92,0.00,,,0.22,Wunderground v.1.15,2013-03-05 22:07:00,
2013-03-05 17:08:00,32.9,30.8,29.73,West,270,5.0,6.0,92,0.00,,,0.22,Wunderground v.1.15,2013-03-05 22:08:00,
2013-03-05 17:10:00,32.9,30.8,29.73,West,261,5.0,8.0,92,0.00,,,0.22,Wunderground v.1.15,2013-03-05 22:10:00,
2013-03-05 17:13:00,32.9,30.8,29.73,West,270,6.0,8.0,92,0.00,,,0.22,Wunderground v.1.15,2013-03-05 22:13:00,
2013-03-05 17:14:00,32.9,30.8,29.73,West,278,6.0,8.0,92,0.00,,,0.22,Wunderground v.1.15,2013-03-05 22:14:00,
2013-03-05 17:15:00,32.9,30.8,29.74,WNW,295,6.0,8.0,92,0.00,,,0.22,Wunderground v.1.15,2013-03-05 22:15:00,
2013-03-05 17:18:00,32.9,30.8,29.74,NNW,337,6.0,11.0,92,0.00,,,0.22,Wunderground v.1.15,2013-03-05 22:18:00,
2013-03-05 17:19:00,32.9,30.8,29.74,NNW,328,6.0,11.0,92,0.00,,,0.22,Wunderground v.1.15,2013-03-05 22:19:00,
2013-03-05 17:20:00,32.9,30.8,29.74,WNW,301,6.0,6.0,92,0.00,,,0.22,Wunderground v.1.15,2013-03-05 22:20:00,
2013-03-05 17:21:00,32.9,30.8,29.74,WNW,282,6.0,6.0,92,0.00,,,0.22,Wunderground v.1.15,2013-03-05 22:21:00,
2013-03-05 17:24:00,32.9,30.8,29.74,NW,304,7.0,11.0,92,0.00,,,0.22,Wunderground v.1.15,2013-03-05 22:24:00,
2013-03-05 17:26:00,32.7,30.9,29.74,West,261,6.0,11.0,93,0.00,,,0.22,Wunderground v.1.15,2013-03-05 22:26:00,
2013-03-05 17:29:00,32.7,30.6,29.74,West,281,6.0,11.0,92,0.00,,,0.22,Wunderground v.1.15,2013-03-05 22:29:00,
2013-03-05 17:32:00,32.7,30.6,29.75,WNW,284,5.0,10.0,92,0.00,,,0.22,Wunderground v.1.15,2013-03-05 22:32:00,
2013-03-05 17:35:00,32.7,30.9,29.75,WSW,241,5.0,14.0,93,0.00,,,0.22,Wunderground v.1.15,2013-03-05 22:35:00,
2013-03-05 17:36:00,32.7,30.9,29.75,NW,306,5.0,14.0,93,0.00,,,0.22,Wunderground v.1.15,2013-03-05 22:36:00,
2013-03-05 17:37:00,32.7,30.9,29.75,West,278,6.0,14.0,93,0.00,,,0.22,Wunderground v.1.15,2013-03-05 22:37:00,
2013-03-05 17:38:00,32.7,30.9,29.75,West,268,6.0,14.0,93,0.00,,,0.22,Wunderground v.1.15,2013-03-05 22:38:00,
2013-03-05 17:40:00,32.7,30.9,29.75,West,275,6.0,16.0,93,0.00,,,0.22,Wunderground v.1.15,2013-03-05 22:40:00,
2013-03-05 17:42:00,32.7,30.9,29.75,NW,316,7.0,16.0,93,0.00,,,0.22,Wunderground v.1.15,2013-03-05 22:42:00,
2013-03-05 17:45:00,32.7,30.9,29.76,WNW,289,7.0,16.0,93,0.00,,,0.22,Wunderground v.1.15,2013-03-05 22:45:00,
2013-03-05 17:47:00,32.7,30.9,29.76,West,275,7.0,16.0,93,0.00,,,0.22,Wunderground v.1.15,2013-03-05 22:47:00,
2013-03-05 17:52:00,32.6,30.8,29.76,West,272,8.0,8.0,93,0.00,,,0.22,Wunderground v.1.15,2013-03-05 22:52:00,
2013-03-05 17:53:00,32.6,30.8,29.76,WNW,296,8.0,8.0,93,0.00,,,0.22,Wunderground v.1.15,2013-03-05 22:53:00,
2013-03-05 17:57:00,32.4,30.6,29.76,WNW,298,9.0,12.0,93,0.00,,,0.22,Wunderground v.1.15,2013-03-05 22:57:00,
2013-03-05 17:59:00,32.4,30.6,29.76,WNW,292,9.0,12.0,93,0.00,,,0.22,Wunderground v.1.15,2013-03-05 22:59:00,
2013-03-05 18:00:00,32.4,30.6,29.77,West,277,9.0,13.0,93,0.00,,,0.22,Wunderground v.1.15,2013-03-05 23:00:00,
2013-03-05 18:01:00,32.4,30.6,29.77,WNW,296,9.0,13.0,93,0.00,,,0.22,Wunderground v.1.15,2013-03-05 23:01:00,
2013-03-05 18:04:00,32.4,30.6,29.77,WNW,289,9.0,13.0,93,0.00,,,0.22,Wunderground v.1.15,2013-03-05 23:04:00,
2013-03-05 18:05:00,32.3,30.5,29.77,WNW,285,9.0,13.0,93,0.00,,,0.22,Wunderground v.1.15,2013-03-05 23:05:00,
2013-03-05 18:07:00,32.3,30.5,29.77,WNW,295,9.0,13.0,93,0.00,,,0.22,Wunderground v.1.15,2013-03-05 23:07:00,
2013-03-05 18:10:00,32.3,30.5,29.77,NW,308,8.0,8.0,93,0.00,,,0.22,Wunderground v.1.15,2013-03-05 23:10:00,
2013-03-05 18:11:00,32.3,30.5,29.77,WSW,247,8.0,8.0,93,0.00,,,0.22,Wunderground v.1.15,2013-03-05 23:11:00,
2013-03-05 18:13:00,32.3,30.5,29.77,WNW,298,7.0,14.0,93,0.00,,,0.22,Wunderground v.1.15,2013-03-05 23:13:00,
2013-03-05 18:17:00,32.3,30.5,29.79,WNW,289,6.0,14.0,93,0.00,,,0.22,Wunderground v.1.15,2013-03-05 23:17:00,
2013-03-05 18:18:00,32.3,30.5,29.79,WNW,298,6.0,14.0,93,0.00,,,0.22,Wunderground v.1.15,2013-03-05 23:18:00,
2013-03-05 18:19:00,32.3,30.5,29.79,WNW,299,6.0,14.0,93,0.00,,,0.22,Wunderground v.1.15,2013-03-05 23:19:00,
2013-03-05 18:20:00,32.3,30.5,29.79,West,280,6.0,7.0,93,0.00,,,0.22,Wunderground v.1.15,2013-03-05 23:20:00,
2013-03-05 18:25:00,32.3,30.5,29.79,WNW,284,6.0,16.0,93,0.00,,,0.22,Wunderground v.1.15,2013-03-05 23:25:00,
2013-03-05 18:26:00,32.3,30.5,29.79,NW,325,6.0,16.0,93,0.00,,,0.22,Wunderground v.1.15,2013-03-05 23:26:00,
2013-03-05 18:28:00,32.3,30.5,29.79,WNW,294,7.0,16.0,93,0.00,,,0.22,Wunderground v.1.15,2013-03-05 23:28:00,
2013-03-05 18:29:00,32.3,30.5,29.79,WNW,298,7.0,16.0,93,0.00,,,0.22,Wunderground v.1.15,2013-03-05 23:29:00,
2013-03-05 18:32:00,32.1,30.3,29.80,NW,306,7.0,7.0,93,0.00,,,0.22,Wunderground v.1.15,2013-03-05 23:32:00,
2013-03-05 18:34:00,32.1,30.3,29.80,West,281,7.0,7.0,93,0.00,,,0.22,Wunderground v.1.15,2013-03-05 23:34:00,
2013-03-05 18:37:00,32.0,30.2,29.80,West,277,7.0,8.0,93,0.00,,,0.22,Wunderground v.1.15,2013-03-05 23:37:00,
2013-03-05 18:38:00,32.0,30.2,29.80,West,280,8.0,8.0,93,0.00,,,0.22,Wunderground v.1.15,2013-03-05 23:38:00,
2013-03-05 18:39:00,32.0,30.2,29.80,WSW,251,7.0,8.0,93,0.00,,,0.22,Wunderground v.1.15,2013-03-05 23:39:00,
2013-03-05 18:40:00,32.0,30.2,29.80,WNW,284,7.0,7.0,93,0.00,,,0.22,Wunderground v.1.15,2013-03-05 23:40:00,
2013-03-05 18:45:00,31.8,30.0,29.80,West,260,8.0,14.0,93,0.00,,,0.22,Wunderground v.1.15,2013-03-05 23:45:00,
2013-03-05 18:46:00,31.8,30.0,29.80,WSW,248,8.0,14.0,93,0.00,,,0.22,Wunderground v.1.15,2013-03-05 23:46:00,
2013-03-05 18:48:00,31.7,29.9,29.80,NW,315,8.0,14.0,93,0.00,,,0.22,Wunderground v.1.15,2013-03-05 23:48:00,
2013-03-05 18:53:00,31.5,29.7,29.80,WSW,248,8.0,10.0,93,0.00,,,0.22,Wunderground v.1.15,2013-03-05 23:53:00,
2013-03-05 18:54:00,31.5,29.7,29.80,West,278,8.0,10.0,93,0.00,,,0.22,Wunderground v.1.15,2013-03-05 23:54:00,
2013-03-05 18:56:00,31.5,29.7,29.80,NW,323,7.0,10.0,93,0.00,,,0.22,Wunderground v.1.15,2013-03-05 23:56:00,
2013-03-05 19:00:00,31.4,29.6,29.81,West,260,7.0,7.0,93,0.00,,,0.22,Wunderground v.1.15,2013-03-06 00:00:00,
2013-03-05 19:01:00,31.4,29.6,29.81,WNW,298,7.0,7.0,93,0.00,,,0.22,Wunderground v.1.15,2013-03-06 00:01:00,
2013-03-05 19:03:00,31.4,29.6,29.81,WNW,291,6.0,7.0,93,0.00,,,0.22,Wunderground v.1.15,2013-03-06 00:03:00,
2013-03-05 19:06:00,31.2,29.4,29.81,WNW,282,6.0,7.0,93,0.00,,,0.22,Wunderground v.1.15,2013-03-06 00:06:00,
2013-03-05 19:07:00,31.2,29.4,29.81,NW,325,5.0,7.0,93,0.00,,,0.22,Wunderground v.1.15,2013-03-06 00:07:00,
2013-03-05 19:10:00,31.2,29.4,29.81,North,349,4.0,4.0,93,0.00,,,0.22,Wunderground v.1.15,2013-03-06 00:10:00,
2013-03-05 19:15:00,31.1,29.3,29.81,WNW,291,5.0,15.0,93,0.00,,,0.22,Wunderground v.1.15,2013-03-06 00:15:00,
2013-03-05 19:16:00,31.1,29.3,29.81,NW,323,5.0,15.0,93,0.00,,,0.22,Wunderground v.1.15,2013-03-06 00:16:00,
2013-03-05 19:21:00,31.1,29.3,29.81,NW,305,7.0,7.0,93,0.00,,,0.22,Wunderground v.1.15,2013-03-06 00:21:00,
2013-03-05 19:22:00,31.1,29.3,29.81,WNW,302,7.0,13.0,93,0.00,,,0.22,Wunderground v.1.15,2013-03-06 00:22:00,
2013-03-05 19:26:00,30.9,29.1,29.81,NW,309,8.0,24.0,93,0.00,,,0.22,Wunderground v.1.15,2013-03-06 00:26:00,
2013-03-05 19:27:00,30.9,29.1,29.81,WNW,292,8.0,24.0,93,0.00,,,0.22,Wunderground v.1.15,2013-03-06 00:27:00,
2013-03-05 19:28:00,30.9,29.1,29.81,WNW,282,8.0,24.0,93,0.00,,,0.22,Wunderground v.1.15,2013-03-06 00:28:00,
2013-03-05 19:32:00,30.8,29.0,29.82,WNW,294,9.0,11.0,93,0.00,,,0.22,Wunderground v.1.15,2013-03-06 00:32:00,
2013-03-05 19:33:00,30.8,29.0,29.82,WNW,288,9.0,11.0,93,0.00,,,0.22,Wunderground v.1.15,2013-03-06 00:33:00,
2013-03-05 19:35:00,30.8,29.0,29.82,West,260,8.0,13.0,93,0.00,,,0.22,Wunderground v.1.15,2013-03-06 00:35:00,
2013-03-05 19:38:00,30.8,29.0,29.82,WNW,288,8.0,13.0,93,0.00,,,0.22,Wunderground v.1.15,2013-03-06 00:38:00,
2013-03-05 19:40:00,30.8,29.0,29.82,WNW,296,8.0,8.0,93,0.00,,,0.22,Wunderground v.1.15,2013-03-06 00:40:00,
2013-03-05 19:41:00,30.8,29.0,29.82,West,265,8.0,8.0,93,0.00,,,0.22,Wunderground v.1.15,2013-03-06 00:41:00,
2013-03-05 19:42:00,30.8,29.0,29.82,SW,229,7.0,10.0,93,0.00,,,0.22,Wunderground v.1.15,2013-03-06 00:42:00,
2013-03-05 19:47:00,30.8,29.0,29.83,West,264,6.0,10.0,93,0.00,,,0.22,Wunderground v.1.15,2013-03-06 00:47:00,
2013-03-05 19:48:00,30.6,28.8,29.83,West,267,6.0,10.0,93,0.00,,,0.22,Wunderground v.1.15,2013-03-06 00:48:00,
2013-03-05 19:52:00,30.6,28.8,29.83,WNW,288,6.0,10.0,93,0.00,,,0.22,Wunderground v.1.15,2013-03-06 00:52:00,
2013-03-05 19:54:00,30.6,28.8,29.83,NW,305,6.0,12.0,93,0.00,,,0.22,Wunderground v.1.15,2013-03-06 00:54:00,
2013-03-05 19:56:00,30.6,28.8,29.83,WNW,292,6.0,12.0,93,0.00,,,0.22,Wunderground v.1.15,2013-03-06 00:56:00,
2013-03-05 19:58:00,30.6,28.8,29.83,NW,315,7.0,12.0,93,0.00,,,0.22,Wunderground v.1.15,2013-03-06 00:58:00,
2013-03-05 20:02:00,30.5,28.7,29.83,West,274,7.0,17.0,93,0.00,,,0.22,Wunderground v.1.15,2013-03-06 01:02:00,
2013-03-05 20:04:00,30.5,28.7,29.83,West,268,8.0,17.0,93,0.00,,,0.22,Wunderground v.1.15,2013-03-06 01:04:00,
2013-03-05 20:05:00,30.5,28.7,29.83,West,275,8.0,17.0,93,0.00,,,0.22,Wunderground v.1.15,2013-03-06 01:05:00,
2013-03-05 20:07:00,30.5,28.7,29.83,NNW,335,8.0,17.0,93,0.00,,,0.22,Wunderground v.1.15,2013-03-06 01:07:00,
2013-03-05 20:10:00,30.3,28.5,29.83,West,274,6.0,6.0,93,0.00,,,0.22,Wunderground v.1.15,2013-03-06 01:10:00,
2013-03-05 20:11:00,30.3,28.5,29.83,WNW,285,6.0,6.0,93,0.00,,,0.22,Wunderground v.1.15,2013-03-06 01:11:00,
2013-03-05 20:14:00,30.3,28.5,29.83,NW,318,5.0,6.0,93,0.00,,,0.22,Wunderground v.1.15,2013-03-06 01:14:00,
2013-03-05 20:17:00,30.3,28.5,29.83,West,281,5.0,7.0,93,0.00,,,0.22,Wunderground v.1.15,2013-03-06 01:17:00,
2013-03-05 20:19:00,30.5,28.7,29.83,WNW,289,5.0,17.0,93,0.00,,,0.22,Wunderground v.1.15,2013-03-06 01:19:00,
2013-03-05 20:21:00,30.3,28.5,29.83,WNW,284,7.0,17.0,93,0.00,,,0.22,Wunderground v.1.15,2013-03-06 01:21:00,
2013-03-05 20:22:00,30.3,28.5,29.83,WNW,285,7.0,17.0,93,0.00,,,0.22,Wunderground v.1.15,2013-03-06 01:22:00,
2013-03-05 20:23:00,30.2,28.4,29.83,NW,305,8.0,17.0,93,0.00,,,0.22,Wunderground v.1.15,2013-03-06 01:23:00,
2013-03-05 20:26:00,30.0,28.2,29.83,WNW,292,10.0,26.0,93,0.00,,,0.22,Wunderground v.1.15,2013-03-06 01:26:00,
2013-03-05 20:27:00,29.9,28.1,29.83,West,261,10.0,26.0,93,0.00,,,0.22,Wunderground v.1.15,2013-03-06 01:27:00,
2013-03-05 20:31:00,29.8,28.0,29.84,West,281,11.0,16.0,93,0.00,,,0.22,Wunderground v.1.15,2013-03-06 01:31:00,
2013-03-05 20:32:00,29.6,27.8,29.84,NW,315,11.0,16.0,93,0.00,,,0.22,Wunderground v.1.15,2013-03-06 01:32:00,
2013-03-05 20:33:00,29.6,27.8,29.84,WNW,299,10.0,16.0,93,0.00,,,0.22,Wunderground v.1.15,2013-03-06 01:33:00,
2013-03-05 20:36:00,29.5,27.7,29.84,West,268,9.0,16.0,93,0.00,,,0.22,Wunderground v.1.15,2013-03-06 01:36:00,
2013-03-05 20:40:00,29.5,27.7,29.84,West,271,8.0,8.0,93,0.00,,,0.22,Wunderground v.1.15,2013-03-06 01:40:00,
2013-03-05 20:41:00,29.5,27.7,29.84,West,280,8.0,8.0,93,0.00,,,0.22,Wunderground v.1.15,2013-03-06 01:41:00,
2013-03-05 20:43:00,29.5,27.7,29.84,West,277,7.0,8.0,93,0.00,,,0.22,Wunderground v.1.15,2013-03-06 01:43:00,
2013-03-05 20:44:00,29.3,27.5,29.84,WNW,298,6.0,8.0,93,0.00,,,0.22,Wunderground v.1.15,2013-03-06 01:44:00,
2013-03-05 20:46:00,29.3,27.5,29.83,WNW,284,6.0,8.0,93,0.00,,,0.22,Wunderground v.1.15,2013-03-06 01:46:00,
2013-03-05 20:48:00,29.3,27.5,29.83,West,277,5.0,17.0,93,0.00,,,0.22,Wunderground v.1.15,2013-03-06 01:48:00,
2013-03-05 20:51:00,29.3,27.5,29.83,West,277,7.0,13.0,93,0.00,,,0.22,Wunderground v.1.15,2013-03-06 01:51:00,
2013-03-05 20:56:00,29.3,27.5,29.83,WNW,292,9.0,13.0,93,0.00,,,0.22,Wunderground v.1.15,2013-03-06 01:56:00,
2013-03-05 20:57:00,29.3,27.5,29.83,WNW,289,9.0,13.0,93,0.00,,,0.22,Wunderground v.1.15,2013-03-06 01:57:00,
2013-03-05 20:58:00,29.3,27.5,29.83,WSW,258,9.0,13.0,93,0.00,,,0.22,Wunderground v.1.15,2013-03-06 01:58:00,
2013-03-05 21:03:00,29.5,27.7,29.83,WSW,251,8.0,10.0,93,0.00,,,0.22,Wunderground v.1.15,2013-03-06 02:03:00,
2013-03-05 21:04:00,29.5,27.7,29.83,NW,306,7.0,10.0,93,0.00,,,0.22,Wunderground v.1.15,2013-03-06 02:04:00,
2013-03-05 21:05:00,29.5,27.7,29.83,WNW,287,7.0,10.0,93,0.00,,,0.22,Wunderground v.1.15,2013-03-06 02:05:00,
2013-03-05 21:07:00,29.5,27.7,29.83,West,264,6.0,10.0,93,0.00,,,0.22,Wunderground v.1.15,2013-03-06 02:07:00,
2013-03-05 21:10:00,29.5,27.7,29.83,WSW,258,6.0,6.0,93,0.00,,,0.22,Wunderground v.1.15,2013-03-06 02:10:00,
2013-03-05 21:11:00,29.5,27.7,29.83,WNW,282,5.0,7.0,93,0.00,,,0.22,Wunderground v.1.15,2013-03-06 02:11:00,
2013-03-05 21:12:00,29.5,27.7,29.83,West,265,5.0,7.0,93,0.00,,,0.22,Wunderground v.1.15,2013-03-06 02:12:00,
2013-03-05 21:13:00,29.5,27.7,29.83,WNW,302,4.0,7.0,93,0.00,,,0.22,Wunderground v.1.15,2013-03-06 02:13:00,
2013-03-05 21:15:00,29.5,27.7,29.84,NW,325,4.0,7.0,93,0.00,,,0.22,Wunderground v.1.15,2013-03-06 02:15:00,
2013-03-05 21:17:00,29.5,27.7,29.84,WNW,287,4.0,7.0,93,0.00,,,0.22,Wunderground v.1.15,2013-03-06 02:17:00,
2013-03-05 21:21:00,29.5,27.7,29.84,West,277,4.0,10.0,93,0.00,,,0.22,Wunderground v.1.15,2013-03-06 02:21:00,
2013-03-05 21:23:00,29.5,27.7,29.84,WNW,301,4.0,10.0,93,0.00,,,0.22,Wunderground v.1.15,2013-03-06 02:23:00,
2013-03-05 21:24:00,29.5,27.7,29.84,WNW,296,3.0,10.0,93,0.00,,,0.22,Wunderground v.1.15,2013-03-06 02:24:00,
2013-03-05 21:25:00,29.5,27.7,29.84,West,267,3.0,11.0,93,0.00,,,0.22,Wunderground v.1.15,2013-03-06 02:25:00,
2013-03-05 21:29:00,29.5,27.7,29.84,WSW,256,4.0,11.0,93,0.00,,,0.22,Wunderground v.1.15,2013-03-06 02:29:00,
2013-03-05 21:31:00,29.5,27.7,29.83,WNW,288,4.0,6.0,93,0.00,,,0.22,Wunderground v.1.15,2013-03-06 02:31:00,
2013-03-05 21:32:00,29.5,27.7,29.83,WNW,289,4.0,6.0,93,0.00,,,0.22,Wunderground v.1.15,2013-03-06 02:32:00,
2013-03-05 21:33:00,29.5,27.7,29.83,SW,216,4.0,6.0,93,0.00,,,0.22,Wunderground v.1.15,2013-03-06 02:33:00,
2013-03-05 21:37:00,29.5,27.7,29.83,West,270,4.0,6.0,93,0.00,,,0.22,Wunderground v.1.15,2013-03-06 02:37:00,
2013-03-05 21:38:00,29.5,27.7,29.83,NW,309,3.0,6.0,93,0.00,,,0.22,Wunderground v.1.15,2013-03-06 02:38:00,
2013-03-05 21:40:00,29.3,27.5,29.83,West,265,3.0,3.0,93,0.00,,,0.22,Wunderground v.1.15,2013-03-06 02:40:00,
2013-03-05 21:43:00,29.3,27.5,29.83,WNW,302,3.0,5.0,93,0.00,,,0.22,Wunderground v.1.15,2013-03-06 02:43:00,
2013-03-05 21:44:00,29.3,27.5,29.83,WNW,301,3.0,5.0,93,0.00,,,0.22,Wunderground v.1.15,2013-03-06 02:44:00,
2013-03-05 21:45:00,29.2,27.4,29.83,WNW,289,3.0,5.0,93,0.00,,,0.22,Wunderground v.1.15,2013-03-06 02:45:00,
2013-03-05 21:47:00,29.2,27.4,29.83,NW,326,4.0,10.0,93,0.00,,,0.22,Wunderground v.1.15,2013-03-06 02:47:00,
2013-03-05 21:50:00,29.2,27.4,29.83,WNW,289,5.0,5.0,93,0.00,,,0.22,Wunderground v.1.15,2013-03-06 02:50:00,
2013-03-05 21:51:00,29.2,27.4,29.83,WNW,299,5.0,6.0,93,0.00,,,0.22,Wunderground v.1.15,2013-03-06 02:51:00,
2013-03-05 21:53:00,29.0,27.2,29.83,West,272,5.0,11.0,93,0.00,,,0.22,Wunderground v.1.15,2013-03-06 02:53:00,
2013-03-05 21:55:00,29.0,27.2,29.83,West,272,6.0,11.0,93,0.00,,,0.22,Wunderground v.1.15,2013-03-06 02:55:00,
2013-03-05 21:56:00,29.0,27.2,29.83,West,272,6.0,11.0,93,0.00,,,0.23,Wunderground v.1.15,2013-03-06 02:56:00,
2013-03-05 22:00:00,29.0,27.2,29.84,WNW,299,6.0,8.0,93,0.00,,,0.23,Wunderground v.1.15,2013-03-06 03:00:00,
2013-03-05 22:01:00,29.0,27.2,29.84,West,280,6.0,8.0,93,0.00,,,0.23,Wunderground v.1.15,2013-03-06 03:01:00,
2013-03-05 22:03:00,29.0,27.2,29.84,West,278,6.0,8.0,93,0.00,,,0.23,Wunderground v.1.15,2013-03-06 03:03:00,
2013-03-05 22:08:00,29.0,27.2,29.84,West,278,5.0,8.0,93,0.06,,,0.24,Wunderground v.1.15,2013-03-06 03:08:00,
2013-03-05 22:09:00,29.0,27.2,29.84,NW,322,4.0,8.0,93,0.06,,,0.24,Wunderground v.1.15,2013-03-06 03:09:00,
2013-03-05 22:10:00,29.0,27.2,29.84,WNW,302,4.0,5.0,93,0.06,,,0.24,Wunderground v.1.15,2013-03-06 03:10:00,
2013-03-05 22:11:00,29.0,27.2,29.84,WSW,247,4.0,5.0,93,0.06,,,0.24,Wunderground v.1.15,2013-03-06 03:11:00,
2013-03-05 22:16:00,29.0,27.2,29.84,WNW,285,5.0,10.0,93,0.06,,,0.24,Wunderground v.1.15,2013-03-06 03:16:00,
2013-03-05 22:17:00,29.0,27.2,29.84,WNW,285,6.0,11.0,93,0.05,,,0.24,Wunderground v.1.15,2013-03-06 03:17:00,
2013-03-05 22:18:00,29.0,27.2,29.84,NW,311,6.0,11.0,93,0.05,,,0.24,Wunderground v.1.15,2013-03-06 03:18:00,
2013-03-05 22:22:00,29.0,27.2,29.84,West,268,6.0,6.0,93,0.04,,,0.25,Wunderground v.1.15,2013-03-06 03:22:00,
2013-03-05 22:24:00,29.0,27.2,29.84,WNW,282,5.0,7.0,93,0.04,,,0.25,Wunderground v.1.15,2013-03-06 03:24:00,
2013-03-05 22:27:00,29.0,27.2,29.84,WNW,284,5.0,7.0,93,0.04,,,0.25,Wunderground v.1.15,2013-03-06 03:27:00,
2013-03-05 22:30:00,29.0,27.2,29.84,West,272,5.0,6.0,93,0.04,,,0.25,Wunderground v.1.15,2013-03-06 03:30:00,
2013-03-05 22:32:00,29.0,27.2,29.84,WNW,291,6.0,7.0,93,0.05,,,0.26,Wunderground v.1.15,2013-03-06 03:32:00,
2013-03-05 22:33:00,29.0,27.2,29.84,WNW,291,6.0,10.0,93,0.05,,,0.26,Wunderground v.1.15,2013-03-06 03:33:00,
2013-03-05 22:37:00,28.9,27.1,29.84,WNW,295,7.0,10.0,93,0.05,,,0.26,Wunderground v.1.15,2013-03-06 03:37:00,
2013-03-05 22:38:00,29.0,27.2,29.84,West,275,7.0,10.0,93,0.05,,,0.26,Wunderground v.1.15,2013-03-06 03:38:00,
2013-03-05 22:42:00,28.9,27.1,29.84,WNW,282,8.0,12.0,93,0.05,,,0.26,Wunderground v.1.15,2013-03-06 03:42:00,
2013-03-05 22:43:00,28.9,27.1,29.84,WNW,295,8.0,12.0,93,0.05,,,0.26,Wunderground v.1.15,2013-03-06 03:43:00,
2013-03-05 22:45:00,28.9,27.1,29.84,West,274,8.0,16.0,93,0.05,,,0.26,Wunderground v.1.15,2013-03-06 03:45:00,
2013-03-05 22:46:00,28.9,27.1,29.84,WNW,285,7.0,16.0,93,0.04,,,0.27,Wunderground v.1.15,2013-03-06 03:46:00,
2013-03-05 22:50:00,29.0,27.2,29.84,West,270,7.0,7.0,93,0.04,,,0.27,Wunderground v.1.15,2013-03-06 03:50:00,
2013-03-05 22:51:00,29.0,27.2,29.84,West,268,7.0,7.0,93,0.04,,,0.27,Wunderground v.1.15,2013-03-06 03:51:00,
2013-03-05 22:53:00,29.0,27.2,29.84,WSW,258,7.0,7.0,93,0.04,,,0.27,Wunderground v.1.15,2013-03-06 03:53:00,
2013-03-05 22:55:00,29.0,27.2,29.84,West,265,6.0,10.0,93,0.04,,,0.27,Wunderground v.1.15,2013-03-06 03:55:00,
2013-03-05 22:57:00,29.0,27.2,29.84,West,274,7.0,10.0,93,0.04,,,0.27,Wunderground v.1.15,2013-03-06 03:57:00,
2013-03-05 22:59:00,29.0,27.2,29.84,WSW,248,7.0,10.0,93,0.04,,,0.27,Wunderground v.1.15,2013-03-06 03:59:00,
2013-03-05 23:01:00,29.0,27.2,29.84,WNW,287,7.0,7.0,93,0.04,,,0.27,Wunderground v.1.15,2013-03-06 04:01:00,
2013-03-05 23:02:00,29.0,27.2,29.84,West,270,7.0,7.0,93,0.04,,,0.27,Wunderground v.1.15,2013-03-06 04:02:00,
2013-03-05 23:03:00,29.0,27.2,29.84,West,270,7.0,7.0,93,0.00,,,0.27,Wunderground v.1.15,2013-03-06 04:03:00,
2013-03-05 23:07:00,29.0,27.2,29.84,WNW,298,5.0,9.0,93,0.00,,,0.28,Wunderground v.1.15,2013-03-06 04:07:00,
2013-03-05 23:08:00,29.0,27.2,29.84,WNW,287,5.0,9.0,93,0.00,,,0.28,Wunderground v.1.15,2013-03-06 04:08:00,
2013-03-05 23:11:00,29.0,27.2,29.84,WNW,291,4.0,4.0,93,0.00,,,0.28,Wunderground v.1.15,2013-03-06 04:11:00,
2013-03-05 23:12:00,29.0,27.2,29.84,NW,308,4.0,6.0,93,0.00,,,0.28,Wunderground v.1.15,2013-03-06 04:12:00,
2013-03-05 23:13:00,29.0,27.2,29.84,NW,312,4.0,6.0,93,0.00,,,0.28,Wunderground v.1.15,2013-03-06 04:13:00,
2013-03-05 23:14:00,29.0,27.2,29.84,West,280,4.0,6.0,93,0.00,,,0.28,Wunderground v.1.15,2013-03-06 04:14:00,
2013-03-05 23:19:00,29.2,27.4,29.83,West,274,5.0,13.0,93,0.00,,,0.28,Wunderground v.1.15,2013-03-06 04:19:00,
2013-03-05 23:20:00,29.2,27.4,29.83,WNW,282,5.0,5.0,93,0.00,,,0.28,Wunderground v.1.15,2013-03-06 04:20:00,
2013-03-05 23:21:00,29.2,27.4,29.83,WNW,288,6.0,7.0,93,0.00,,,0.28,Wunderground v.1.15,2013-03-06 04:21:00,
2013-03-05 23:22:00,29.2,27.4,29.83,WSW,256,6.0,10.0,93,0.00,,,0.28,Wunderground v.1.15,2013-03-06 04:22:00,
2013-03-05 23:25:00,29.2,27.4,29.83,WSW,258,7.0,10.0,93,0.00,,,0.29,Wunderground v.1.15,2013-03-06 04:25:00,
2013-03-05 23:27:00,29.2,27.4,29.83,West,280,7.0,10.0,93,0.00,,,0.29,Wunderground v.1.15,2013-03-06 04:27:00,
2013-03-05 23:32:00,29.2,27.4,29.83,WNW,296,8.0,8.0,93,0.00,,,0.29,Wunderground v.1.15,2013-03-06 04:32:00,
2013-03-05 23:33:00,29.2,27.4,29.83,WNW,301,8.0,8.0,93,0.00,,,0.29,Wunderground v.1.15,2013-03-06 04:33:00,
2013-03-05 23:34:00,29.2,27.4,29.83,WNW,299,8.0,8.0,93,0.00,,,0.29,Wunderground v.1.15,2013-03-06 04:34:00,
2013-03-05 23:35:00,29.2,27.4,29.83,NW,313,8.0,8.0,93,0.00,,,0.29,Wunderground v.1.15,2013-03-06 04:35:00,
2013-03-05 23:40:00,29.2,27.4,29.83,West,275,7.0,7.0,93,0.00,,,0.29,Wunderground v.1.15,2013-03-06 04:40:00,
2013-03-05 23:41:00,29.2,27.4,29.83,WSW,257,7.0,12.0,93,0.00,,,0.29,Wunderground v.1.15,2013-03-06 04:41:00,
2013-03-05 23:45:00,29.3,27.5,29.83,WNW,289,6.0,12.0,93,0.00,,,0.29,Wunderground v.1.15,2013-03-06 04:45:00,
2013-03-05 23:46:00,29.3,27.5,29.83,WNW,295,7.0,12.0,93,0.00,,,0.29,Wunderground v.1.15,2013-03-06 04:46:00,
2013-03-05 23:50:00,29.3,27.5,29.83,WNW,299,6.0,6.0,93,0.00,,,0.29,Wunderground v.1.15,2013-03-06 04:50:00,
2013-03-05 23:52:00,29.3,27.5,29.83,WNW,284,5.0,12.0,93,0.00,,,0.29,Wunderground v.1.15,2013-03-06 04:52:00,
2013-03-05 23:55:00,29.3,27.5,29.83,West,268,5.0,12.0,93,0.00,,,0.29,Wunderground v.1.15,2013-03-06 04:55:00,
2013-03-05 23:57:00,29.3,27.5,29.83,WNW,294,6.0,12.0,93,0.00,,,0.29,Wunderground v.1.15,2013-03-06 04:57:00,
2013-03-05 23:58:00,29.3,27.5,29.83,West,274,6.0,12.0,93,0.00,,,0.30,Wunderground v.1.15,2013-03-06 04:58:00,